Wetterdaten: Sonntag, 27.11.2022
Datum Zeit Temp. Aussen Temp. o. S. Temp +5cm Feuchte Auss Luftdruck Regen Sonnenschein Regendauer Solar Windben Empfang
27.11.2022 00:00 4,9 C 4,4 C 2,2 C 95 % 1027,6 hPa 0,0 l/m 0 min 0 min 0 W/m 16,1 km/h (3 Bft) 95,74 %
27.11.2022 00:02 4,9 C 4,4 C 2,2 C 95 % 1027,6 hPa 0,0 l/m 0 min 0 min 0 W/m 12,9 km/h (3 Bft) 97,56 %
27.11.2022 00:04 4,8 C 4,4 C 2,2 C 95 % 1027,6 hPa 0,0 l/m 0 min 0 min 0 W/m 12,9 km/h (3 Bft) 98,00 %
27.11.2022 00:08 4,8 C 4,4 C 2,2 C 95 % 1027,5 hPa 0,0 l/m 0 min 0 min 0 W/m 16,1 km/h (3 Bft) 96,39 %
27.11.2022 00:10 4,8 C 4,4 C 2,2 C 95 % 1027,5 hPa 0,0 l/m 0 min 0 min 0 W/m 12,9 km/h (3 Bft) 97,87 %
27.11.2022 00:12 4,8 C 4,4 C 2,2 C 95 % 1027,5 hPa 0,0 l/m 0 min 0 min 0 W/m 16,1 km/h (3 Bft) 97,87 %
27.11.2022 00:14 4,8 C 3,9 C 2,2 C 95 % 1027,4 hPa 0,0 l/m 0 min 0 min 0 W/m 12,9 km/h (3 Bft) 97,87 %
27.11.2022 00:16 4,8 C 3,9 C 2,2 C 95 % 1027,4 hPa 0,0 l/m 0 min 0 min 0 W/m 9,7 km/h (2 Bft) 100,00 %
27.11.2022 00:18 4,8 C 3,9 C 2,2 C 95 % 1027,3 hPa 0,0 l/m 0 min 0 min 0 W/m 6,4 km/h (2 Bft) 100,00 %
27.11.2022 00:20 4,8 C 3,9 C 2,2 C 95 % 1027,3 hPa 0,0 l/m 0 min 0 min 0 W/m 6,4 km/h (2 Bft) 97,83 %
27.11.2022 00:22 4,8 C 3,9 C 2,2 C 95 % 1027,3 hPa 0,0 l/m 0 min 0 min 0 W/m 12,9 km/h (3 Bft) 100,00 %
27.11.2022 00:24 4,8 C 3,9 C 2,2 C 95 % 1027,2 hPa 0,0 l/m 0 min 0 min 0 W/m 6,4 km/h (2 Bft) 100,00 %
27.11.2022 00:26 4,8 C 4,4 C 2,2 C 95 % 1027,2 hPa 0,0 l/m 0 min 0 min 0 W/m 19,3 km/h (3 Bft) 100,00 %
27.11.2022 00:28 4,8 C 3,9 C 2,2 C 95 % 1027,2 hPa 0,0 l/m 0 min 0 min 0 W/m 6,4 km/h (2 Bft) 97,87 %
27.11.2022 00:30 4,8 C 3,9 C 2,2 C 95 % 1027,1 hPa 0,0 l/m 0 min 0 min 0 W/m 6,4 km/h (2 Bft) 100,00 %
27.11.2022 00:32 4,8 C 3,9 C 2,2 C 95 % 1027,1 hPa 0,0 l/m 0 min 0 min 0 W/m 6,4 km/h (2 Bft) 97,83 %
27.11.2022 00:34 4,8 C 4,4 C 2,2 C 95 % 1027,1 hPa 0,0 l/m 0 min 0 min 0 W/m 16,1 km/h (3 Bft) 100,00 %
27.11.2022 00:36 4,8 C 4,4 C 2,2 C 95 % 1027,0 hPa 0,0 l/m 0 min 0 min 0 W/m 16,1 km/h (3 Bft) 100,00 %
27.11.2022 00:38 4,8 C 4,4 C 2,2 C 95 % 1027,0 hPa 0,0 l/m 0 min 0 min 0 W/m 16,1 km/h (3 Bft) 97,87 %
27.11.2022 00:40 4,8 C 4,4 C 2,2 C 95 % 1026,9 hPa 0,0 l/m 0 min 0 min 0 W/m 19,3 km/h (3 Bft) 97,87 %
27.11.2022 00:42 4,8 C 4,4 C 2,2 C 95 % 1027,0 hPa 0,0 l/m 0 min 0 min 0 W/m 12,9 km/h (3 Bft) 97,87 %
27.11.2022 00:44 4,8 C 4,4 C 2,2 C 95 % 1027,0 hPa 0,0 l/m 0 min 0 min 0 W/m 6,4 km/h (2 Bft) 97,83 %
27.11.2022 00:46 4,8 C 4,4 C 2,2 C 95 % 1027,0 hPa 0,0 l/m 0 min 0 min 0 W/m 12,9 km/h (3 Bft) 97,87 %
27.11.2022 00:48 4,8 C 4,4 C 2,2 C 95 % 1027,0 hPa 0,0 l/m 0 min 0 min 0 W/m 16,1 km/h (3 Bft) 97,87 %
27.11.2022 00:50 4,8 C 4,4 C 2,2 C 95 % 1027,0 hPa 0,0 l/m 0 min 0 min 0 W/m 12,9 km/h (3 Bft) 95,74 %
27.11.2022 00:52 4,8 C 4,4 C 2,2 C 95 % 1026,9 hPa 0,0 l/m 0 min 0 min 0 W/m 12,9 km/h (3 Bft) 97,87 %
27.11.2022 00:54 4,8 C 4,4 C 2,2 C 95 % 1026,9 hPa 0,0 l/m 0 min 0 min 0 W/m 12,9 km/h (3 Bft) 95,74 %
27.11.2022 00:56 4,8 C 4,4 C 2,2 C 95 % 1026,8 hPa 0,0 l/m 0 min 0 min 0 W/m 12,9 km/h (3 Bft) 97,83 %
27.11.2022 00:58 4,8 C 4,4 C 2,2 C 95 % 1026,8 hPa 0,0 l/m 0 min 0 min 0 W/m 6,4 km/h (2 Bft) 95,74 %
27.11.2022 01:00 4,8 C 4,4 C 2,2 C 95 % 1026,8 hPa 0,0 l/m 0 min 0 min 0 W/m 6,4 km/h (2 Bft) 97,87 %
27.11.2022 01:02 4,8 C 4,4 C 2,2 C 95 % 1026,8 hPa 0,0 l/m 0 min 0 min 0 W/m 12,9 km/h (3 Bft) 97,87 %
27.11.2022 01:04 4,8 C 4,4 C 2,2 C 95 % 1026,7 hPa 0,0 l/m 0 min 0 min 0 W/m 16,1 km/h (3 Bft) 91,67 %
27.11.2022 01:06 4,9 C 4,4 C 2,2 C 95 % 1026,7 hPa 0,0 l/m 0 min 0 min 0 W/m 16,1 km/h (3 Bft) 98,28 %
27.11.2022 01:08 4,9 C 4,4 C 2,2 C 95 % 1026,7 hPa 0,0 l/m 0 min 0 min 0 W/m 16,1 km/h (3 Bft) 94,29 %
27.11.2022 01:10 4,9 C 4,4 C 2,2 C 95 % 1026,7 hPa 0,0 l/m 0 min 0 min 0 W/m 12,9 km/h (3 Bft) 61,70 %
27.11.2022 01:12 4,9 C 4,4 C 2,2 C 95 % 1026,7 hPa 0,0 l/m 0 min 0 min 0 W/m 16,1 km/h (3 Bft) 92,31 %
27.11.2022 01:14 4,9 C 4,4 C 2,2 C 95 % 1026,7 hPa 0,0 l/m 0 min 0 min 0 W/m 6,4 km/h (2 Bft) 100,00 %
27.11.2022 01:16 4,9 C 4,4 C 2,2 C 95 % 1026,7 hPa 0,0 l/m 0 min 0 min 0 W/m 6,4 km/h (2 Bft) 97,87 %
27.11.2022 01:18 4,9 C 4,4 C 2,2 C 95 % 1026,7 hPa 0,0 l/m 0 min 0 min 0 W/m 12,9 km/h (3 Bft) 100,00 %
27.11.2022 01:20 4,9 C 4,4 C 2,2 C 95 % 1026,7 hPa 0,0 l/m 0 min 0 min 0 W/m 6,4 km/h (2 Bft) 100,00 %
27.11.2022 01:22 4,8 C 4,4 C 2,2 C 95 % 1026,7 hPa 0,0 l/m 0 min 0 min 0 W/m 6,4 km/h (2 Bft) 100,00 %
27.11.2022 01:24 4,8 C 4,4 C 2,2 C 95 % 1026,7 hPa 0,0 l/m 0 min 0 min 0 W/m 6,4 km/h (2 Bft) 100,00 %
27.11.2022 01:26 4,8 C 4,4 C 2,2 C 95 % 1026,7 hPa 0,0 l/m 0 min 0 min 0 W/m 12,9 km/h (3 Bft) 100,00 %
27.11.2022 01:28 4,8 C 4,4 C 2,2 C 95 % 1026,7 hPa 0,0 l/m 0 min 0 min 0 W/m 12,9 km/h (3 Bft) 100,00 %
27.11.2022 01:30 4,8 C 3,9 C 2,2 C 95 % 1026,6 hPa 0,0 l/m 0 min 0 min 0 W/m 12,9 km/h (3 Bft) 97,83 %
27.11.2022 01:32 4,8 C 3,9 C 2,2 C 95 % 1026,6 hPa 0,0 l/m 0 min 0 min 0 W/m 3,2 km/h (1 Bft) 100,00 %
27.11.2022 01:34 4,8 C 3,9 C 2,2 C 95 % 1026,6 hPa 0,0 l/m 0 min 0 min 0 W/m 12,9 km/h (3 Bft) 100,00 %
27.11.2022 01:36 4,8 C 3,9 C 2,2 C 95 % 1026,6 hPa 0,0 l/m 0 min 0 min 0 W/m 6,4 km/h (2 Bft) 100,00 %
27.11.2022 01:38 4,8 C 3,9 C 2,2 C 95 % 1026,6 hPa 0,0 l/m 0 min 0 min 0 W/m 6,4 km/h (2 Bft) 100,00 %
27.11.2022 01:40 4,8 C 3,9 C 2,2 C 95 % 1026,6 hPa 0,0 l/m 0 min 0 min 0 W/m 12,9 km/h (3 Bft) 100,00 %
27.11.2022 01:42 4,7 C 3,9 C 1,7 C 95 % 1026,6 hPa 0,0 l/m 0 min 0 min 0 W/m 6,4 km/h (2 Bft) 97,87 %
27.11.2022 01:44 4,7 C 3,9 C 1,7 C 95 % 1026,6 hPa 0,0 l/m 0 min 0 min 0 W/m 9,7 km/h (2 Bft) 100,00 %
27.11.2022 01:46 4,7 C 3,9 C 2,2 C 95 % 1026,5 hPa 0,0 l/m 0 min 0 min 0 W/m 12,9 km/h (3 Bft) 100,00 %
27.11.2022 01:48 4,7 C 3,9 C 2,2 C 95 % 1026,4 hPa 0,0 l/m 0 min 0 min 0 W/m 12,9 km/h (3 Bft) 100,00 %
27.11.2022 01:50 4,7 C 3,9 C 2,2 C 95 % 1026,4 hPa 0,0 l/m 0 min 0 min 0 W/m 12,9 km/h (3 Bft) 97,87 %
27.11.2022 01:52 4,7 C 3,9 C 2,2 C 95 % 1026,4 hPa 0,0 l/m 0 min 0 min 0 W/m 16,1 km/h (3 Bft) 100,00 %
27.11.2022 01:54 4,7 C 3,9 C 2,2 C 95 % 1026,4 hPa 0,0 l/m 0 min 0 min 0 W/m 12,9 km/h (3 Bft) 97,83 %
27.11.2022 01:56 4,7 C 3,9 C 2,2 C 95 % 1026,3 hPa 0,0 l/m 0 min 0 min 0 W/m 12,9 km/h (3 Bft) 97,87 %
27.11.2022 01:58 4,7 C 3,9 C 2,2 C 95 % 1026,3 hPa 0,0 l/m 0 min 0 min 0 W/m 16,1 km/h (3 Bft) 97,87 %
27.11.2022 02:00 4,7 C 3,9 C 2,2 C 95 % 1026,3 hPa 0,0 l/m 0 min 0 min 0 W/m 16,1 km/h (3 Bft) 95,74 %
27.11.2022 02:02 4,7 C 3,9 C 2,2 C 95 % 1026,3 hPa 0,0 l/m 0 min 0 min 0 W/m 16,1 km/h (3 Bft) 93,62 %
27.11.2022 02:04 4,7 C 3,9 C 2,2 C 95 % 1026,2 hPa 0,0 l/m 0 min 0 min 0 W/m 6,4 km/h (2 Bft) 93,75 %
27.11.2022 02:06 4,7 C 3,9 C 2,2 C 95 % 1026,2 hPa 0,0 l/m 0 min 0 min 0 W/m 16,1 km/h (3 Bft) 94,92 %
27.11.2022 02:08 4,7 C 4,4 C 2,2 C 95 % 1026,2 hPa 0,0 l/m 0 min 0 min 0 W/m 12,9 km/h (3 Bft) 97,14 %
27.11.2022 02:10 4,7 C 4,4 C 2,2 C 95 % 1026,2 hPa 0,0 l/m 0 min 0 min 0 W/m 19,3 km/h (3 Bft) 93,62 %
27.11.2022 02:12 4,7 C 4,4 C 2,2 C 95 % 1026,3 hPa 0,0 l/m 0 min 0 min 0 W/m 12,9 km/h (3 Bft) 95,74 %
27.11.2022 02:14 4,8 C 4,4 C 2,2 C 95 % 1026,3 hPa 0,0 l/m 0 min 0 min 0 W/m 6,4 km/h (2 Bft) 95,74 %
27.11.2022 02:16 4,8 C 4,4 C 2,2 C 95 % 1026,3 hPa 0,0 l/m 0 min 0 min 0 W/m 16,1 km/h (3 Bft) 95,65 %
27.11.2022 02:18 4,8 C 4,4 C 2,2 C 95 % 1026,3 hPa 0,0 l/m 0 min 0 min 0 W/m 12,9 km/h (3 Bft) 97,87 %
27.11.2022 02:20 4,8 C 4,4 C 2,2 C 95 % 1026,3 hPa 0,0 l/m 0 min 0 min 0 W/m 12,9 km/h (3 Bft) 93,62 %
27.11.2022 02:22 4,8 C 4,4 C 2,2 C 95 % 1026,3 hPa 0,0 l/m 0 min 0 min 0 W/m 12,9 km/h (3 Bft) 93,62 %
27.11.2022 02:24 4,8 C 4,4 C 2,2 C 95 % 1026,4 hPa 0,0 l/m 0 min 0 min 0 W/m 12,9 km/h (3 Bft) 95,74 %
27.11.2022 02:26 4,8 C 4,4 C 2,2 C 95 % 1026,4 hPa 0,0 l/m 0 min 0 min 0 W/m 6,4 km/h (2 Bft) 87,23 %
27.11.2022 02:28 4,8 C 4,4 C 2,2 C 95 % 1026,4 hPa 0,0 l/m 0 min 0 min 0 W/m 6,4 km/h (2 Bft) 93,62 %
27.11.2022 02:30 4,8 C 4,4 C 2,2 C 95 % 1026,4 hPa 0,0 l/m 0 min 0 min 0 W/m 16,1 km/h (3 Bft) 93,48 %
27.11.2022 02:32 4,8 C 4,4 C 2,2 C 95 % 1026,3 hPa 0,0 l/m 0 min 0 min 0 W/m 16,1 km/h (3 Bft) 91,49 %
27.11.2022 02:34 4,8 C 4,4 C 2,2 C 95 % 1026,4 hPa 0,0 l/m 0 min 0 min 0 W/m 19,3 km/h (3 Bft) 89,36 %
27.11.2022 02:36 4,8 C 4,4 C 2,2 C 95 % 1026,3 hPa 0,0 l/m 0 min 0 min 0 W/m 16,1 km/h (3 Bft) 93,62 %
27.11.2022 02:38 4,8 C 4,4 C 2,2 C 95 % 1026,4 hPa 0,0 l/m 0 min 0 min 0 W/m 19,3 km/h (3 Bft) 95,74 %
27.11.2022 02:40 4,8 C 4,4 C 2,2 C 95 % 1026,3 hPa 0,0 l/m 0 min 0 min 0 W/m 16,1 km/h (3 Bft) 95,74 %
27.11.2022 02:42 4,8 C 4,4 C 2,2 C 95 % 1026,3 hPa 0,0 l/m 0 min 0 min 0 W/m 19,3 km/h (3 Bft) 95,65 %
27.11.2022 02:44 4,9 C 4,4 C 2,2 C 95 % 1026,2 hPa 0,0 l/m 0 min 0 min 0 W/m 19,3 km/h (3 Bft) 95,74 %
27.11.2022 02:46 4,9 C 4,4 C 2,2 C 95 % 1026,2 hPa 0,0 l/m 0 min 0 min 0 W/m 12,9 km/h (3 Bft) 97,87 %
27.11.2022 02:48 4,8 C 4,4 C 2,2 C 95 % 1026,1 hPa 0,0 l/m 0 min 0 min 0 W/m 16,1 km/h (3 Bft) 97,87 %
27.11.2022 02:50 4,9 C 4,4 C 2,2 C 95 % 1026,1 hPa 0,0 l/m 0 min 0 min 0 W/m 12,9 km/h (3 Bft) 97,87 %
27.11.2022 02:52 4,8 C 4,4 C 2,2 C 95 % 1026,1 hPa 0,0 l/m 0 min 0 min 0 W/m 12,9 km/h (3 Bft) 95,65 %
27.11.2022 02:54 4,8 C 4,4 C 2,2 C 95 % 1026,1 hPa 0,0 l/m 0 min 0 min 0 W/m 16,1 km/h (3 Bft) 95,74 %
27.11.2022 02:56 4,9 C 4,4 C 2,2 C 95 % 1026,1 hPa 0,0 l/m 0 min 0 min 0 W/m 12,9 km/h (3 Bft) 100,00 %
27.11.2022 02:58 4,8 C 4,4 C 2,2 C 95 % 1026,1 hPa 0,0 l/m 0 min 0 min 0 W/m 6,4 km/h (2 Bft) 100,00 %
27.11.2022 03:00 4,8 C 4,4 C 2,2 C 95 % 1026,1 hPa 0,0 l/m 0 min 0 min 0 W/m 25,7 km/h (4 Bft) 97,87 %
27.11.2022 03:02 4,8 C 4,4 C 2,2 C 95 % 1026,1 hPa 0,0 l/m 0 min 0 min 0 W/m 22,5 km/h (4 Bft) 97,87 %
27.11.2022 03:04 4,8 C 4,4 C 2,2 C 94 % 1026,1 hPa 0,0 l/m 0 min 0 min 0 W/m 12,9 km/h (3 Bft) 100,00 %
27.11.2022 03:06 4,8 C 4,4 C 2,2 C 95 % 1026,1 hPa 0,0 l/m 0 min 0 min 0 W/m 16,1 km/h (3 Bft) 100,00 %
27.11.2022 03:08 4,8 C 4,4 C 2,2 C 95 % 1026,1 hPa 0,0 l/m 0 min 0 min 0 W/m 19,3 km/h (3 Bft) 100,00 %
27.11.2022 03:10 4,8 C 4,4 C 2,2 C 94 % 1026,1 hPa 0,0 l/m 0 min 0 min 0 W/m 25,7 km/h (4 Bft) 100,00 %
27.11.2022 03:12 4,8 C 4,4 C 2,2 C 94 % 1026,1 hPa 0,0 l/m 0 min 0 min 0 W/m 16,1 km/h (3 Bft) 100,00 %
27.11.2022 03:14 4,8 C 4,4 C 2,2 C 94 % 1026,0 hPa 0,0 l/m 0 min 0 min 0 W/m 9,7 km/h (2 Bft) 66,00 %
27.11.2022 03:16 4,8 C 4,4 C 2,2 C 94 % 1026,0 hPa 0,0 l/m 0 min 0 min 0 W/m 25,7 km/h (4 Bft) 86,67 %
27.11.2022 03:18 4,8 C 4,4 C 2,2 C 94 % 1026,0 hPa 0,0 l/m 0 min 0 min 0 W/m 16,1 km/h (3 Bft) 100,00 %
27.11.2022 03:20 4,8 C 4,4 C 2,2 C 94 % 1026,1 hPa 0,0 l/m 0 min 0 min 0 W/m 19,3 km/h (3 Bft) 100,00 %
27.11.2022 03:22 4,8 C 4,4 C 2,2 C 94 % 1026,0 hPa 0,0 l/m 0 min 0 min 0 W/m 19,3 km/h (3 Bft) 100,00 %
27.11.2022 03:24 4,8 C 4,4 C 2,2 C 94 % 1025,9 hPa 0,0 l/m 0 min 0 min 0 W/m 22,5 km/h (4 Bft) 100,00 %
27.11.2022 03:26 4,8 C 4,4 C 2,2 C 94 % 1025,9 hPa 0,0 l/m 0 min 0 min 0 W/m 9,7 km/h (2 Bft) 100,00 %
27.11.2022 03:28 4,8 C 4,4 C 2,2 C 94 % 1025,9 hPa 0,0 l/m 0 min 0 min 0 W/m 12,9 km/h (3 Bft) 100,00 %
27.11.2022 03:30 4,8 C 4,4 C 2,2 C 94 % 1025,9 hPa 0,0 l/m 0 min 0 min 0 W/m 12,9 km/h (3 Bft) 100,00 %
27.11.2022 03:32 4,8 C 3,9 C 2,2 C 94 % 1025,9 hPa 0,0 l/m 0 min 0 min 0 W/m 6,4 km/h (2 Bft) 97,87 %
27.11.2022 03:34 4,8 C 3,9 C 2,2 C 94 % 1025,8 hPa 0,0 l/m 0 min 0 min 0 W/m 16,1 km/h (3 Bft) 100,00 %
27.11.2022 03:36 4,8 C 4,4 C 2,2 C 94 % 1025,7 hPa 0,0 l/m 0 min 0 min 0 W/m 16,1 km/h (3 Bft) 95,74 %
27.11.2022 03:38 4,8 C 3,9 C 1,7 C 94 % 1025,7 hPa 0,0 l/m 0 min 0 min 0 W/m 12,9 km/h (3 Bft) 100,00 %
27.11.2022 03:40 4,8 C 3,9 C 2,2 C 94 % 1025,6 hPa 0,0 l/m 0 min 0 min 0 W/m 12,9 km/h (3 Bft) 100,00 %
27.11.2022 03:42 4,8 C 3,9 C 1,7 C 94 % 1025,5 hPa 0,0 l/m 0 min 0 min 0 W/m 12,9 km/h (3 Bft) 100,00 %
27.11.2022 03:44 4,8 C 4,4 C 2,2 C 94 % 1025,4 hPa 0,0 l/m 0 min 0 min 0 W/m 22,5 km/h (4 Bft) 100,00 %
27.11.2022 03:46 4,8 C 4,4 C 2,2 C 94 % 1025,3 hPa 0,0 l/m 0 min 0 min 0 W/m 22,5 km/h (4 Bft) 100,00 %
27.11.2022 03:48 4,8 C 4,4 C 2,2 C 94 % 1025,4 hPa 0,0 l/m 0 min 0 min 0 W/m 16,1 km/h (3 Bft) 100,00 %
27.11.2022 03:50 4,8 C 4,4 C 2,2 C 94 % 1025,3 hPa 0,0 l/m 0 min 0 min 0 W/m 12,9 km/h (3 Bft) 100,00 %
27.11.2022 03:52 4,8 C 4,4 C 1,7 C 94 % 1025,3 hPa 0,0 l/m 0 min 0 min 0 W/m 12,9 km/h (3 Bft) 100,00 %
27.11.2022 03:54 4,8 C 4,4 C 2,2 C 94 % 1025,3 hPa 0,0 l/m 0 min 0 min 0 W/m 22,5 km/h (4 Bft) 97,87 %
27.11.2022 03:56 4,8 C 4,4 C 1,7 C 94 % 1025,4 hPa 0,0 l/m 0 min 0 min 0 W/m 22,5 km/h (4 Bft) 100,00 %
27.11.2022 03:58 4,8 C 3,9 C 1,7 C 94 % 1025,4 hPa 0,0 l/m 0 min 0 min 0 W/m 12,9 km/h (3 Bft) 97,87 %
27.11.2022 04:00 4,8 C 3,9 C 1,7 C 94 % 1025,3 hPa 0,0 l/m 0 min 0 min 0 W/m 22,5 km/h (4 Bft) 97,87 %
27.11.2022 04:02 4,8 C 3,9 C 1,7 C 94 % 1025,3 hPa 0,0 l/m 0 min 0 min 0 W/m 12,9 km/h (3 Bft) 75,00 %
27.11.2022 04:04 4,8 C 4,4 C 1,7 C 94 % 1025,3 hPa 0,0 l/m 0 min 0 min 0 W/m 16,1 km/h (3 Bft) 95,65 %
27.11.2022 04:06 4,8 C 4,4 C 1,7 C 93 % 1025,2 hPa 0,0 l/m 0 min 0 min 0 W/m 19,3 km/h (3 Bft) 100,00 %
27.11.2022 04:08 4,8 C 4,4 C 1,7 C 93 % 1025,1 hPa 0,0 l/m 0 min 0 min 0 W/m 19,3 km/h (3 Bft) 97,87 %
27.11.2022 04:10 4,8 C 4,4 C 2,2 C 93 % 1025,2 hPa 0,0 l/m 0 min 0 min 0 W/m 16,1 km/h (3 Bft) 97,87 %
27.11.2022 04:12 4,8 C 4,4 C 2,2 C 93 % 1025,1 hPa 0,0 l/m 0 min 0 min 0 W/m 22,5 km/h (4 Bft) 100,00 %
27.11.2022 04:14 4,8 C 4,4 C 2,2 C 93 % 1025,1 hPa 0,0 l/m 0 min 0 min 0 W/m 22,5 km/h (4 Bft) 97,87 %
27.11.2022 04:16 4,8 C 4,4 C 1,7 C 93 % 1025,1 hPa 0,0 l/m 0 min 0 min 0 W/m 12,9 km/h (3 Bft) 93,48 %
27.11.2022 04:18 4,8 C 4,4 C 1,7 C 93 % 1025,1 hPa 0,0 l/m 0 min 0 min 0 W/m 12,9 km/h (3 Bft) 97,87 %
27.11.2022 04:20 4,8 C 4,4 C 2,2 C 93 % 1025,0 hPa 0,0 l/m 0 min 0 min 0 W/m 22,5 km/h (4 Bft) 97,87 %
27.11.2022 04:22 4,8 C 4,4 C 2,2 C 93 % 1025,1 hPa 0,0 l/m 0 min 0 min 0 W/m 16,1 km/h (3 Bft) 95,74 %
27.11.2022 04:24 4,8 C 4,4 C 2,2 C 93 % 1025,1 hPa 0,0 l/m 0 min 0 min 0 W/m 25,7 km/h (4 Bft) 95,74 %
27.11.2022 04:26 4,8 C 4,4 C 2,2 C 93 % 1025,0 hPa 0,0 l/m 0 min 0 min 0 W/m 16,1 km/h (3 Bft) 93,62 %
27.11.2022 04:28 4,8 C 4,4 C 2,2 C 93 % 1025,0 hPa 0,0 l/m 0 min 0 min 0 W/m 22,5 km/h (4 Bft) 93,48 %
27.11.2022 04:30 4,8 C 4,4 C 2,2 C 93 % 1025,1 hPa 0,0 l/m 0 min 0 min 0 W/m 22,5 km/h (4 Bft) 93,62 %
27.11.2022 04:32 4,8 C 4,4 C 2,2 C 93 % 1025,1 hPa 0,0 l/m 0 min 0 min 0 W/m 12,9 km/h (3 Bft) 95,74 %
27.11.2022 04:34 4,8 C 4,4 C 2,2 C 93 % 1025,0 hPa 0,0 l/m 0 min 0 min 0 W/m 12,9 km/h (3 Bft) 93,62 %
27.11.2022 04:36 4,8 C 4,4 C 2,2 C 93 % 1025,1 hPa 0,0 l/m 0 min 0 min 0 W/m 16,1 km/h (3 Bft) 95,74 %
27.11.2022 04:38 4,8 C 4,4 C 2,2 C 93 % 1025,0 hPa 0,0 l/m 0 min 0 min 0 W/m 12,9 km/h (3 Bft) 91,49 %
27.11.2022 04:40 4,8 C 4,4 C 2,2 C 93 % 1024,9 hPa 0,0 l/m 0 min 0 min 0 W/m 19,3 km/h (3 Bft) 91,30 %
27.11.2022 04:42 4,8 C 4,4 C 2,2 C 93 % 1024,9 hPa 0,0 l/m 0 min 0 min 0 W/m 12,9 km/h (3 Bft) 97,87 %
27.11.2022 04:44 4,8 C 4,4 C 2,2 C 93 % 1024,9 hPa 0,0 l/m 0 min 0 min 0 W/m 25,7 km/h (4 Bft) 97,87 %
27.11.2022 04:46 4,8 C 4,4 C 2,2 C 93 % 1024,9 hPa 0,0 l/m 0 min 0 min 0 W/m 22,5 km/h (4 Bft) 93,62 %
27.11.2022 04:48 4,8 C 4,4 C 2,2 C 93 % 1024,9 hPa 0,0 l/m 0 min 0 min 0 W/m 25,7 km/h (4 Bft) 97,87 %
27.11.2022 04:50 4,8 C 4,4 C 2,2 C 93 % 1024,9 hPa 0,0 l/m 0 min 0 min 0 W/m 19,3 km/h (3 Bft) 95,74 %
27.11.2022 04:52 4,8 C 4,4 C 2,2 C 93 % 1024,8 hPa 0,0 l/m 0 min 0 min 0 W/m 19,3 km/h (3 Bft) 95,65 %
27.11.2022 04:54 4,8 C 4,4 C 2,2 C 93 % 1024,9 hPa 0,0 l/m 0 min 0 min 0 W/m 12,9 km/h (3 Bft) 97,87 %
27.11.2022 04:56 4,8 C 4,4 C 2,2 C 93 % 1024,9 hPa 0,0 l/m 0 min 0 min 0 W/m 16,1 km/h (3 Bft) 97,87 %
27.11.2022 04:58 4,8 C 4,4 C 2,2 C 93 % 1024,9 hPa 0,0 l/m 0 min 0 min 0 W/m 22,5 km/h (4 Bft) 97,87 %
27.11.2022 05:00 4,8 C 4,4 C 2,2 C 93 % 1024,8 hPa 0,0 l/m 0 min 0 min 0 W/m 22,5 km/h (4 Bft) 97,87 %
27.11.2022 05:02 4,9 C 4,4 C 2,2 C 93 % 1024,9 hPa 0,0 l/m 0 min 0 min 0 W/m 35,4 km/h (5 Bft) 95,74 %
27.11.2022 05:04 4,9 C 4,4 C 2,2 C 93 % 1024,8 hPa 0,0 l/m 0 min 0 min 0 W/m 22,5 km/h (4 Bft) 95,65 %
27.11.2022 05:06 4,9 C 4,4 C 2,2 C 93 % 1024,7 hPa 0,0 l/m 0 min 0 min 0 W/m 19,3 km/h (3 Bft) 97,87 %
27.11.2022 05:08 4,9 C 4,4 C 2,2 C 93 % 1024,6 hPa 0,0 l/m 0 min 0 min 0 W/m 19,3 km/h (3 Bft) 95,74 %
27.11.2022 05:10 4,9 C 4,4 C 2,2 C 93 % 1024,7 hPa 0,0 l/m 0 min 0 min 0 W/m 9,7 km/h (2 Bft) 95,74 %
27.11.2022 05:12 4,9 C 4,4 C 2,2 C 93 % 1024,7 hPa 0,0 l/m 0 min 0 min 0 W/m 16,1 km/h (3 Bft) 97,87 %
27.11.2022 05:14 4,9 C 4,4 C 2,2 C 93 % 1024,6 hPa 0,0 l/m 0 min 0 min 0 W/m 29,0 km/h (5 Bft) 95,74 %
27.11.2022 05:16 4,9 C 4,4 C 2,2 C 93 % 1024,6 hPa 0,0 l/m 0 min 0 min 0 W/m 25,7 km/h (4 Bft) 97,83 %
27.11.2022 05:18 4,9 C 4,4 C 2,2 C 93 % 1024,6 hPa 0,0 l/m 0 min 0 min 0 W/m 19,3 km/h (3 Bft) 97,87 %
27.11.2022 05:20 4,9 C 4,4 C 2,2 C 93 % 1024,6 hPa 0,0 l/m 0 min 0 min 0 W/m 16,1 km/h (3 Bft) 97,87 %
27.11.2022 05:22 4,9 C 4,4 C 2,2 C 93 % 1024,5 hPa 0,0 l/m 0 min 0 min 0 W/m 22,5 km/h (4 Bft) 53,33 %
27.11.2022 05:24 4,9 C 4,4 C 2,2 C 93 % 1024,5 hPa 0,0 l/m 0 min 0 min 0 W/m 16,1 km/h (3 Bft) 95,74 %
27.11.2022 05:26 4,9 C 4,4 C 2,2 C 93 % 1024,5 hPa 0,0 l/m 0 min 0 min 0 W/m 12,9 km/h (3 Bft) 95,92 %
27.11.2022 05:28 4,9 C 4,4 C 2,2 C 93 % 1024,4 hPa 0,0 l/m 0 min 0 min 0 W/m 25,7 km/h (4 Bft) 97,87 %
27.11.2022 05:30 4,9 C 4,4 C 2,2 C 93 % 1024,4 hPa 0,0 l/m 0 min 0 min 0 W/m 22,5 km/h (4 Bft) 97,87 %
27.11.2022 05:32 4,9 C 4,4 C 2,2 C 93 % 1024,4 hPa 0,0 l/m 0 min 0 min 0 W/m 16,1 km/h (3 Bft) 95,74 %
27.11.2022 05:34 4,9 C 4,4 C 2,2 C 93 % 1024,4 hPa 0,0 l/m 0 min 0 min 0 W/m 19,3 km/h (3 Bft) 97,87 %
27.11.2022 05:36 4,9 C 4,4 C 2,2 C 93 % 1024,3 hPa 0,0 l/m 0 min 0 min 0 W/m 25,7 km/h (4 Bft) 93,62 %
27.11.2022 05:38 4,9 C 4,4 C 2,2 C 93 % 1024,2 hPa 0,0 l/m 0 min 0 min 0 W/m 29,0 km/h (5 Bft) 97,83 %
27.11.2022 05:40 4,9 C 4,4 C 2,2 C 93 % 1024,3 hPa 0,0 l/m 0 min 0 min 0 W/m 12,9 km/h (3 Bft) 97,87 %
27.11.2022 05:42 4,9 C 4,4 C 2,2 C 93 % 1024,4 hPa 0,0 l/m 0 min 0 min 0 W/m 25,7 km/h (4 Bft) 95,74 %
27.11.2022 05:44 4,9 C 4,4 C 2,2 C 93 % 1024,3 hPa 0,0 l/m 0 min 0 min 0 W/m 22,5 km/h (4 Bft) 97,87 %
27.11.2022 05:46 4,9 C 4,4 C 2,2 C 93 % 1024,2 hPa 0,0 l/m 0 min 0 min 0 W/m 12,9 km/h (3 Bft) 97,87 %
27.11.2022 05:48 4,9 C 4,4 C 2,2 C 92 % 1024,3 hPa 0,0 l/m 0 min 0 min 0 W/m 25,7 km/h (4 Bft) 95,74 %
27.11.2022 05:50 4,9 C 4,4 C 2,2 C 92 % 1024,3 hPa 0,0 l/m 0 min 0 min 0 W/m 16,1 km/h (3 Bft) 95,65 %
27.11.2022 05:52 4,9 C 4,4 C 2,2 C 92 % 1024,3 hPa 0,0 l/m 0 min 0 min 0 W/m 16,1 km/h (3 Bft) 95,74 %
27.11.2022 05:54 4,9 C 4,4 C 2,2 C 92 % 1024,4 hPa 0,0 l/m 0 min 0 min 0 W/m 16,1 km/h (3 Bft) 100,00 %
27.11.2022 05:56 4,9 C 4,4 C 2,2 C 92 % 1024,4 hPa 0,0 l/m 0 min 0 min 0 W/m 19,3 km/h (3 Bft) 100,00 %
27.11.2022 05:58 4,9 C 4,4 C 2,2 C 92 % 1024,4 hPa 0,0 l/m 0 min 0 min 0 W/m 16,1 km/h (3 Bft) 97,87 %
27.11.2022 06:00 4,9 C 4,4 C 2,2 C 92 % 1024,3 hPa 0,0 l/m 0 min 0 min 0 W/m 16,1 km/h (3 Bft) 97,87 %
27.11.2022 06:02 4,9 C 4,4 C 2,2 C 92 % 1024,2 hPa 0,0 l/m 0 min 0 min 0 W/m 16,1 km/h (3 Bft) 100,00 %
27.11.2022 06:04 4,9 C 4,4 C 2,2 C 92 % 1024,3 hPa 0,0 l/m 0 min 0 min 0 W/m 16,1 km/h (3 Bft) 100,00 %
27.11.2022 06:08 4,9 C 4,4 C 2,2 C 92 % 1024,2 hPa 0,0 l/m 0 min 0 min 0 W/m 22,5 km/h (4 Bft) 98,85 %
27.11.2022 06:10 4,9 C 4,4 C 2,2 C 92 % 1024,2 hPa 0,0 l/m 0 min 0 min 0 W/m 19,3 km/h (3 Bft) 93,62 %
27.11.2022 06:12 4,9 C 4,4 C 2,2 C 92 % 1024,1 hPa 0,0 l/m 0 min 0 min 0 W/m 16,1 km/h (3 Bft) 97,87 %
27.11.2022 06:14 4,9 C 4,4 C 2,2 C 92 % 1024,1 hPa 0,0 l/m 0 min 0 min 0 W/m 29,0 km/h (5 Bft) 97,87 %
27.11.2022 06:16 4,9 C 4,4 C 2,2 C 92 % 1024,1 hPa 0,0 l/m 0 min 0 min 0 W/m 22,5 km/h (4 Bft) 95,65 %
27.11.2022 06:18 4,9 C 4,4 C 2,2 C 92 % 1024,1 hPa 0,0 l/m 0 min 0 min 0 W/m 25,7 km/h (4 Bft) 97,87 %
27.11.2022 06:20 4,9 C 4,4 C 2,2 C 92 % 1024,1 hPa 0,0 l/m 0 min 0 min 0 W/m 25,7 km/h (4 Bft) 97,87 %
27.11.2022 06:22 4,9 C 4,4 C 2,2 C 92 % 1024,0 hPa 0,0 l/m 0 min 0 min 0 W/m 12,9 km/h (3 Bft) 97,87 %
27.11.2022 06:24 4,9 C 4,4 C 2,2 C 92 % 1024,0 hPa 0,0 l/m 0 min 0 min 0 W/m 16,1 km/h (3 Bft) 95,74 %
27.11.2022 06:26 4,9 C 4,4 C 2,2 C 92 % 1024,1 hPa 0,0 l/m 0 min 0 min 0 W/m 16,1 km/h (3 Bft) 93,62 %
27.11.2022 06:28 4,9 C 4,4 C 2,2 C 92 % 1024,1 hPa 0,0 l/m 0 min 0 min 0 W/m 19,3 km/h (3 Bft) 46,15 %
27.11.2022 06:30 4,9 C 4,4 C 2,2 C 92 % 1024,0 hPa 0,0 l/m 0 min 0 min 0 W/m 22,5 km/h (4 Bft) 97,87 %
27.11.2022 06:32 4,9 C 4,4 C 2,2 C 92 % 1024,0 hPa 0,0 l/m 0 min 0 min 0 W/m 22,5 km/h (4 Bft) 97,87 %
27.11.2022 06:34 4,9 C 4,4 C 2,2 C 92 % 1024,0 hPa 0,0 l/m 0 min 0 min 0 W/m 19,3 km/h (3 Bft) 95,74 %
27.11.2022 06:36 4,9 C 4,4 C 2,2 C 92 % 1024,0 hPa 0,0 l/m 0 min 0 min 0 W/m 22,5 km/h (4 Bft) 97,87 %
27.11.2022 06:38 4,8 C 4,4 C 2,2 C 92 % 1024,0 hPa 0,0 l/m 0 min 0 min 0 W/m 12,9 km/h (3 Bft) 100,00 %
27.11.2022 06:40 4,8 C 4,4 C 2,2 C 92 % 1024,0 hPa 0,0 l/m 0 min 0 min 0 W/m 19,3 km/h (3 Bft) 100,00 %
27.11.2022 06:42 4,8 C 4,4 C 2,2 C 92 % 1023,9 hPa 0,0 l/m 0 min 0 min 0 W/m 22,5 km/h (4 Bft) 100,00 %
27.11.2022 06:44 4,8 C 4,4 C 2,2 C 92 % 1023,9 hPa 0,0 l/m 0 min 0 min 0 W/m 22,5 km/h (4 Bft) 97,87 %
27.11.2022 06:46 4,8 C 4,4 C 1,7 C 92 % 1023,8 hPa 0,0 l/m 0 min 0 min 0 W/m 19,3 km/h (3 Bft) 100,00 %
27.11.2022 06:48 4,8 C 4,4 C 1,7 C 92 % 1023,8 hPa 0,0 l/m 0 min 0 min 0 W/m 19,3 km/h (3 Bft) 100,00 %
27.11.2022 06:50 4,8 C 4,4 C 1,7 C 92 % 1023,7 hPa 0,0 l/m 0 min 0 min 0 W/m 12,9 km/h (3 Bft) 100,00 %
27.11.2022 06:52 4,8 C 4,4 C 1,7 C 92 % 1023,7 hPa 0,0 l/m 0 min 0 min 0 W/m 25,7 km/h (4 Bft) 97,83 %
27.11.2022 06:54 4,8 C 4,4 C 1,7 C 92 % 1023,8 hPa 0,0 l/m 0 min 0 min 0 W/m 12,9 km/h (3 Bft) 97,87 %
27.11.2022 06:56 4,8 C 4,4 C 1,7 C 92 % 1023,8 hPa 0,0 l/m 0 min 0 min 0 W/m 19,3 km/h (3 Bft) 97,87 %
27.11.2022 06:58 4,8 C 4,4 C 1,7 C 92 % 1023,7 hPa 0,0 l/m 0 min 0 min 0 W/m 16,1 km/h (3 Bft) 97,87 %
27.11.2022 07:00 4,8 C 4,4 C 1,7 C 92 % 1023,6 hPa 0,0 l/m 0 min 0 min 0 W/m 19,3 km/h (3 Bft) 97,87 %
27.11.2022 07:02 4,8 C 4,4 C 1,7 C 92 % 1023,6 hPa 0,0 l/m 0 min 0 min 0 W/m 16,1 km/h (3 Bft) 97,87 %
27.11.2022 07:04 4,8 C 4,4 C 1,7 C 92 % 1023,7 hPa 0,0 l/m 0 min 0 min 0 W/m 22,5 km/h (4 Bft) 95,65 %
27.11.2022 07:06 4,8 C 4,4 C 1,7 C 92 % 1023,7 hPa 0,0 l/m 0 min 0 min 0 W/m 19,3 km/h (3 Bft) 98,31 %
27.11.2022 07:08 4,8 C 4,4 C 1,7 C 92 % 1023,7 hPa 0,0 l/m 0 min 0 min 0 W/m 19,3 km/h (3 Bft) 97,14 %
27.11.2022 07:10 4,8 C 4,4 C 1,7 C 92 % 1023,7 hPa 0,0 l/m 0 min 0 min 0 W/m 16,1 km/h (3 Bft) 97,87 %
27.11.2022 07:12 4,8 C 4,4 C 1,7 C 92 % 1023,7 hPa 0,0 l/m 0 min 0 min 0 W/m 16,1 km/h (3 Bft) 97,87 %
27.11.2022 07:14 4,8 C 4,4 C 1,7 C 92 % 1023,7 hPa 0,0 l/m 0 min 0 min 0 W/m 16,1 km/h (3 Bft) 97,87 %
27.11.2022 07:16 4,8 C 4,4 C 1,7 C 92 % 1023,6 hPa 0,0 l/m 0 min 0 min 0 W/m 16,1 km/h (3 Bft) 97,83 %
27.11.2022 07:18 4,8 C 4,4 C 1,7 C 92 % 1023,6 hPa 0,0 l/m 0 min 0 min 0 W/m 22,5 km/h (4 Bft) 97,87 %
27.11.2022 07:20 4,8 C 4,4 C 1,7 C 92 % 1023,6 hPa 0,0 l/m 0 min 0 min 0 W/m 16,1 km/h (3 Bft) 95,74 %
27.11.2022 07:22 4,8 C 4,4 C 1,7 C 92 % 1023,5 hPa 0,0 l/m 0 min 0 min 0 W/m 16,1 km/h (3 Bft) 97,87 %
27.11.2022 07:24 4,8 C 4,4 C 1,7 C 92 % 1023,5 hPa 0,0 l/m 0 min 0 min 0 W/m 16,1 km/h (3 Bft) 97,87 %
27.11.2022 07:26 4,8 C 4,4 C 1,7 C 92 % 1023,6 hPa 0,0 l/m 0 min 0 min 0 W/m 12,9 km/h (3 Bft) 97,83 %
27.11.2022 07:28 4,8 C 4,4 C 1,7 C 92 % 1023,6 hPa 0,0 l/m 0 min 0 min 0 W/m 16,1 km/h (3 Bft) 95,74 %
27.11.2022 07:30 4,8 C 4,4 C 1,7 C 92 % 1023,7 hPa 0,0 l/m 0 min 0 min 0 W/m 12,9 km/h (3 Bft) 97,87 %
27.11.2022 07:32 4,8 C 4,4 C 1,7 C 92 % 1023,6 hPa 0,0 l/m 0 min 0 min 0 W/m 12,9 km/h (3 Bft) 70,21 %
27.11.2022 07:34 4,8 C 4,4 C 1,7 C 92 % 1023,6 hPa 0,0 l/m 0 min 0 min 0 W/m 16,1 km/h (3 Bft) 84,09 %
27.11.2022 07:36 4,8 C 3,9 C 1,7 C 92 % 1023,4 hPa 0,0 l/m 0 min 0 min 0 W/m 12,9 km/h (3 Bft) 97,87 %
27.11.2022 07:38 4,8 C 3,9 C 1,7 C 92 % 1023,3 hPa 0,0 l/m 0 min 0 min 0 W/m 19,3 km/h (3 Bft) 100,00 %
27.11.2022 07:40 4,7 C 3,9 C 1,7 C 92 % 1023,1 hPa 0,0 l/m 0 min 0 min 0 W/m 16,1 km/h (3 Bft) 100,00 %
27.11.2022 07:42 4,7 C 3,9 C 1,7 C 92 % 1023,0 hPa 0,0 l/m 0 min 0 min 0 W/m 16,1 km/h (3 Bft) 97,87 %
27.11.2022 07:44 4,7 C 3,9 C 1,7 C 92 % 1023,1 hPa 0,0 l/m 0 min 0 min 0 W/m 12,9 km/h (3 Bft) 100,00 %
27.11.2022 07:46 4,7 C 3,9 C 1,7 C 92 % 1023,1 hPa 0,0 l/m 0 min 0 min 0 W/m 19,3 km/h (3 Bft) 97,87 %
27.11.2022 07:48 4,7 C 3,9 C 1,7 C 92 % 1022,9 hPa 0,0 l/m 0 min 0 min 0 W/m 19,3 km/h (3 Bft) 100,00 %
27.11.2022 07:50 4,7 C 4,4 C 1,7 C 92 % 1022,9 hPa 0,0 l/m 0 min 0 min 0 W/m 9,7 km/h (2 Bft) 97,87 %
27.11.2022 07:52 4,7 C 4,4 C 1,7 C 92 % 1023,0 hPa 0,0 l/m 0 min 0 min 0 W/m 16,1 km/h (3 Bft) 100,00 %
27.11.2022 07:54 4,7 C 4,4 C 1,7 C 92 % 1023,0 hPa 0,0 l/m 0 min 0 min 0 W/m 19,3 km/h (3 Bft) 100,00 %
27.11.2022 07:56 4,8 C 4,4 C 1,7 C 92 % 1023,1 hPa 0,0 l/m 0 min 0 min 0 W/m 32,2 km/h (5 Bft) 97,87 %
27.11.2022 07:58 4,8 C 4,4 C 1,7 C 92 % 1023,0 hPa 0,0 l/m 0 min 0 min 0 W/m 12,9 km/h (3 Bft) 97,87 %
27.11.2022 08:00 4,8 C 4,4 C 1,7 C 92 % 1023,0 hPa 0,0 l/m 0 min 0 min 0 W/m 12,9 km/h (3 Bft) 93,62 %
27.11.2022 08:02 4,8 C 4,4 C 1,7 C 92 % 1023,0 hPa 0,0 l/m 0 min 0 min 2 W/m 19,3 km/h (3 Bft) 95,65 %
27.11.2022 08:04 4,8 C 4,4 C 1,7 C 92 % 1022,9 hPa 0,0 l/m 0 min 0 min 5 W/m 19,3 km/h (3 Bft) 91,84 %
27.11.2022 08:06 4,8 C 4,4 C 2,2 C 92 % 1022,9 hPa 0,0 l/m 0 min 0 min 5 W/m 19,3 km/h (3 Bft) 96,61 %
27.11.2022 08:08 4,8 C 4,4 C 2,2 C 92 % 1022,9 hPa 0,0 l/m 0 min 0 min 5 W/m 16,1 km/h (3 Bft) 97,14 %
27.11.2022 08:10 4,9 C 4,4 C 2,2 C 92 % 1023,0 hPa 0,0 l/m 0 min 0 min 5 W/m 16,1 km/h (3 Bft) 95,74 %
27.11.2022 08:12 4,9 C 4,4 C 2,2 C 92 % 1022,9 hPa 0,0 l/m 0 min 0 min 2 W/m 12,9 km/h (3 Bft) 95,74 %
27.11.2022 08:14 4,9 C 4,4 C 2,2 C 92 % 1022,9 hPa 0,0 l/m 0 min 0 min 4 W/m 12,9 km/h (3 Bft) 93,48 %
27.11.2022 08:16 4,9 C 4,4 C 2,2 C 92 % 1022,7 hPa 0,0 l/m 0 min 0 min 5 W/m 12,9 km/h (3 Bft) 95,74 %
27.11.2022 08:18 4,9 C 4,4 C 2,2 C 92 % 1022,7 hPa 0,0 l/m 0 min 0 min 5 W/m 16,1 km/h (3 Bft) 95,74 %
27.11.2022 08:20 4,9 C 4,4 C 2,2 C 92 % 1022,8 hPa 0,0 l/m 0 min 0 min 5 W/m 12,9 km/h (3 Bft) 95,74 %
27.11.2022 08:22 5,0 C 4,4 C 2,2 C 92 % 1022,8 hPa 0,0 l/m 0 min 0 min 5 W/m 16,1 km/h (3 Bft) 95,74 %
27.11.2022 08:24 5,0 C 4,4 C 2,2 C 92 % 1022,7 hPa 0,0 l/m 0 min 0 min 5 W/m 9,7 km/h (2 Bft) 93,48 %
27.11.2022 08:26 5,1 C 4,4 C 2,2 C 92 % 1022,8 hPa 0,0 l/m 0 min 0 min 5 W/m 25,7 km/h (4 Bft) 95,74 %
27.11.2022 08:28 5,1 C 4,4 C 2,2 C 92 % 1022,8 hPa 0,0 l/m 0 min 0 min 5 W/m 6,4 km/h (2 Bft) 95,74 %
27.11.2022 08:30 5,1 C 4,4 C 2,2 C 92 % 1022,7 hPa 0,0 l/m 0 min 0 min 5 W/m 9,7 km/h (2 Bft) 95,74 %
27.11.2022 08:32 5,1 C 4,4 C 2,2 C 92 % 1022,8 hPa 0,0 l/m 0 min 0 min 7 W/m 12,9 km/h (3 Bft) 95,74 %
27.11.2022 08:34 5,1 C 4,4 C 2,2 C 92 % 1022,7 hPa 0,0 l/m 0 min 0 min 7 W/m 12,9 km/h (3 Bft) 100,00 %
27.11.2022 08:36 5,1 C 4,4 C 2,2 C 92 % 1022,8 hPa 0,0 l/m 0 min 0 min 7 W/m 16,1 km/h (3 Bft) 100,00 %
27.11.2022 08:38 5,1 C 4,4 C 2,2 C 92 % 1022,7 hPa 0,0 l/m 0 min 0 min 9 W/m 12,9 km/h (3 Bft) 97,87 %
27.11.2022 08:40 5,2 C 5,0 C 2,2 C 92 % 1022,7 hPa 0,0 l/m 0 min 0 min 11 W/m 6,4 km/h (2 Bft) 95,74 %
27.11.2022 08:42 5,2 C 5,0 C 2,2 C 91 % 1022,7 hPa 0,0 l/m 0 min 0 min 13 W/m 9,7 km/h (2 Bft) 97,87 %
27.11.2022 08:44 5,2 C 5,0 C 2,2 C 91 % 1022,6 hPa 0,0 l/m 0 min 0 min 16 W/m 12,9 km/h (3 Bft) 97,87 %
27.11.2022 08:46 5,2 C 5,0 C 2,2 C 91 % 1022,7 hPa 0,0 l/m 0 min 0 min 19 W/m 16,1 km/h (3 Bft) 93,62 %
27.11.2022 08:48 5,2 C 5,0 C 2,2 C 91 % 1022,7 hPa 0,0 l/m 0 min 0 min 20 W/m 12,9 km/h (3 Bft) 93,48 %
27.11.2022 08:50 5,2 C 5,0 C 2,2 C 91 % 1022,7 hPa 0,0 l/m 0 min 0 min 23 W/m 9,7 km/h (2 Bft) 95,74 %
27.11.2022 08:52 5,3 C 5,0 C 2,2 C 91 % 1022,6 hPa 0,0 l/m 0 min 0 min 25 W/m 16,1 km/h (3 Bft) 97,87 %
27.11.2022 08:54 5,3 C 5,0 C 2,2 C 91 % 1022,6 hPa 0,0 l/m 0 min 0 min 26 W/m 12,9 km/h (3 Bft) 100,00 %
27.11.2022 08:56 5,3 C 5,0 C 2,2 C 91 % 1022,7 hPa 0,0 l/m 0 min 0 min 29 W/m 12,9 km/h (3 Bft) 100,00 %
27.11.2022 08:58 5,3 C 5,0 C 2,2 C 91 % 1022,7 hPa 0,0 l/m 0 min 0 min 31 W/m 3,2 km/h (1 Bft) 100,00 %
27.11.2022 09:00 5,4 C 5,0 C 2,2 C 92 % 1022,7 hPa 0,0 l/m 0 min 0 min 35 W/m 16,1 km/h (3 Bft) 97,83 %
27.11.2022 09:02 5,4 C 5,0 C 2,2 C 92 % 1022,7 hPa 0,0 l/m 0 min 0 min 40 W/m 12,9 km/h (3 Bft) 97,87 %
27.11.2022 09:04 5,4 C 5,0 C 2,2 C 92 % 1022,7 hPa 0,0 l/m 2 min 0 min 50 W/m 16,1 km/h (3 Bft) 97,87 %
27.11.2022 09:06 5,4 C 5,0 C 2,8 C 92 % 1022,7 hPa 0,0 l/m 2 min 0 min 61 W/m 16,1 km/h (3 Bft) 100,00 %
27.11.2022 09:08 5,4 C 5,6 C 2,8 C 91 % 1022,8 hPa 0,0 l/m 2 min 0 min 72 W/m 12,9 km/h (3 Bft) 94,29 %
27.11.2022 09:10 5,5 C 5,6 C 2,8 C 91 % 1022,8 hPa 0,0 l/m 2 min 0 min 80 W/m 16,1 km/h (3 Bft) 100,00 %
27.11.2022 09:12 5,6 C 5,6 C 2,8 C 91 % 1022,8 hPa 0,0 l/m 2 min 0 min 78 W/m 16,1 km/h (3 Bft) 97,83 %
27.11.2022 09:14 5,6 C 5,6 C 2,8 C 91 % 1022,8 hPa 0,0 l/m 2 min 0 min 71 W/m 19,3 km/h (3 Bft) 97,87 %
27.11.2022 09:16 5,6 C 5,6 C 2,8 C 91 % 1022,7 hPa 0,0 l/m 2 min 0 min 62 W/m 16,1 km/h (3 Bft) 100,00 %
27.11.2022 09:18 5,7 C 5,6 C 2,8 C 91 % 1022,7 hPa 0,0 l/m 0 min 0 min 56 W/m 6,4 km/h (2 Bft) 97,87 %
27.11.2022 09:20 5,7 C 5,6 C 2,8 C 91 % 1022,7 hPa 0,0 l/m 0 min 0 min 53 W/m 12,9 km/h (3 Bft) 97,87 %
27.11.2022 09:22 5,7 C 5,6 C 2,8 C 91 % 1022,7 hPa 0,0 l/m 0 min 0 min 51 W/m 16,1 km/h (3 Bft) 97,87 %
27.11.2022 09:24 5,7 C 5,6 C 2,8 C 91 % 1022,6 hPa 0,0 l/m 0 min 0 min 51 W/m 12,9 km/h (3 Bft) 93,48 %
27.11.2022 09:26 5,7 C 5,6 C 2,8 C 91 % 1022,8 hPa 0,0 l/m 0 min 0 min 51 W/m 3,2 km/h (1 Bft) 97,87 %
27.11.2022 09:28 5,8 C 5,6 C 2,8 C 91 % 1022,7 hPa 0,0 l/m 0 min 0 min 49 W/m 16,1 km/h (3 Bft) 95,74 %
27.11.2022 09:30 5,8 C 5,6 C 2,8 C 91 % 1022,6 hPa 0,0 l/m 0 min 0 min 48 W/m 16,1 km/h (3 Bft) 97,87 %
27.11.2022 09:32 5,8 C 5,6 C 2,8 C 91 % 1022,7 hPa 0,0 l/m 0 min 0 min 47 W/m 12,9 km/h (3 Bft) 95,74 %
27.11.2022 09:34 5,8 C 5,6 C 2,8 C 91 % 1022,6 hPa 0,0 l/m 0 min 0 min 46 W/m 12,9 km/h (3 Bft) 97,87 %
27.11.2022 09:36 5,9 C 5,6 C 2,8 C 91 % 1022,6 hPa 0,0 l/m 0 min 0 min 44 W/m 12,9 km/h (3 Bft) 97,83 %
27.11.2022 09:38 5,9 C 5,6 C 2,8 C 90 % 1022,5 hPa 0,0 l/m 0 min 0 min 44 W/m 12,9 km/h (3 Bft) 97,87 %
27.11.2022 09:40 5,9 C 5,6 C 2,8 C 90 % 1022,5 hPa 0,0 l/m 0 min 0 min 45 W/m 16,1 km/h (3 Bft) 97,87 %
27.11.2022 09:42 5,9 C 5,6 C 2,8 C 90 % 1022,5 hPa 0,0 l/m 0 min 0 min 46 W/m 25,7 km/h (4 Bft) 95,74 %
27.11.2022 09:44 5,9 C 5,6 C 2,8 C 90 % 1022,4 hPa 0,0 l/m 0 min 0 min 47 W/m 12,9 km/h (3 Bft) 100,00 %
27.11.2022 09:46 6,0 C 5,6 C 2,8 C 90 % 1022,4 hPa 0,0 l/m 0 min 0 min 48 W/m 12,9 km/h (3 Bft) 97,87 %
27.11.2022 09:48 6,0 C 5,6 C 2,8 C 90 % 1022,4 hPa 0,0 l/m 0 min 0 min 51 W/m 9,7 km/h (2 Bft) 95,65 %
27.11.2022 09:50 6,1 C 5,6 C 2,8 C 90 % 1022,3 hPa 0,0 l/m 0 min 0 min 54 W/m 16,1 km/h (3 Bft) 95,74 %
27.11.2022 09:52 6,1 C 5,6 C 2,8 C 90 % 1022,2 hPa 0,0 l/m 0 min 0 min 58 W/m 19,3 km/h (3 Bft) 95,74 %
27.11.2022 09:54 6,1 C 5,6 C 2,8 C 90 % 1022,3 hPa 0,0 l/m 0 min 0 min 62 W/m 16,1 km/h (3 Bft) 93,62 %
27.11.2022 09:56 6,1 C 6,1 C 3,3 C 90 % 1022,3 hPa 0,0 l/m 0 min 0 min 63 W/m 19,3 km/h (3 Bft) 95,74 %
27.11.2022 09:58 6,1 C 6,1 C 3,3 C 89 % 1022,2 hPa 0,0 l/m 0 min 0 min 63 W/m 16,1 km/h (3 Bft) 95,74 %
27.11.2022 10:00 6,2 C 6,1 C 3,3 C 89 % 1022,2 hPa 0,0 l/m 0 min 0 min 65 W/m 22,5 km/h (4 Bft) 95,65 %
27.11.2022 10:02 6,2 C 6,1 C 3,3 C 89 % 1022,2 hPa 0,0 l/m 0 min 0 min 67 W/m 22,5 km/h (4 Bft) 95,74 %
27.11.2022 10:04 6,2 C 6,1 C 3,3 C 89 % 1022,1 hPa 0,0 l/m 0 min 0 min 69 W/m 22,5 km/h (4 Bft) 97,87 %
27.11.2022 10:06 6,2 C 6,1 C 3,3 C 89 % 1022,1 hPa 0,0 l/m 0 min 0 min 71 W/m 22,5 km/h (4 Bft) 96,61 %
27.11.2022 10:08 6,2 C 6,1 C 3,3 C 89 % 1022,1 hPa 0,0 l/m 0 min 0 min 75 W/m 19,3 km/h (3 Bft) 97,14 %
27.11.2022 10:10 6,3 C 6,1 C 3,3 C 89 % 1022,1 hPa 0,0 l/m 0 min 0 min 79 W/m 12,9 km/h (3 Bft) 97,87 %
27.11.2022 10:12 6,3 C 6,1 C 3,3 C 89 % 1022,1 hPa 0,0 l/m 0 min 0 min 81 W/m 16,1 km/h (3 Bft) 95,65 %
27.11.2022 10:14 6,3 C 6,1 C 3,3 C 89 % 1022,1 hPa 0,0 l/m 0 min 0 min 82 W/m 25,7 km/h (4 Bft) 97,87 %
27.11.2022 10:16 6,4 C 6,1 C 3,3 C 89 % 1022,1 hPa 0,0 l/m 0 min 0 min 79 W/m 12,9 km/h (3 Bft) 97,87 %
27.11.2022 10:18 6,4 C 6,1 C 3,3 C 89 % 1022,1 hPa 0,0 l/m 0 min 0 min 77 W/m 19,3 km/h (3 Bft) 95,74 %
27.11.2022 10:20 6,4 C 6,1 C 3,3 C 89 % 1022,0 hPa 0,0 l/m 0 min 0 min 76 W/m 9,7 km/h (2 Bft) 97,87 %
27.11.2022 10:22 6,5 C 6,1 C 3,3 C 89 % 1022,1 hPa 0,0 l/m 0 min 0 min 75 W/m 16,1 km/h (3 Bft) 97,87 %
27.11.2022 10:24 6,5 C 6,1 C 3,3 C 89 % 1022,1 hPa 0,0 l/m 0 min 0 min 73 W/m 19,3 km/h (3 Bft) 93,48 %
27.11.2022 10:26 6,5 C 6,1 C 3,3 C 89 % 1022,1 hPa 0,0 l/m 0 min 0 min 69 W/m 19,3 km/h (3 Bft) 93,62 %
27.11.2022 10:28 6,5 C 6,1 C 3,3 C 88 % 1022,1 hPa 0,0 l/m 0 min 0 min 67 W/m 19,3 km/h (3 Bft) 97,87 %
27.11.2022 10:30 6,6 C 6,1 C 3,3 C 89 % 1022,0 hPa 0,0 l/m 0 min 0 min 64 W/m 12,9 km/h (3 Bft) 95,74 %
27.11.2022 10:32 6,6 C 6,1 C 3,3 C 89 % 1022,0 hPa 0,0 l/m 0 min 0 min 61 W/m 16,1 km/h (3 Bft) 87,23 %
27.11.2022 10:34 6,6 C 6,1 C 3,3 C 89 % 1022,0 hPa 0,0 l/m 0 min 0 min 58 W/m 12,9 km/h (3 Bft) 100,00 %
27.11.2022 10:36 6,6 C 6,1 C 3,3 C 88 % 1022,0 hPa 0,0 l/m 0 min 0 min 55 W/m 25,7 km/h (4 Bft) 97,87 %
27.11.2022 10:38 6,6 C 6,1 C 3,3 C 88 % 1022,0 hPa 0,0 l/m 0 min 0 min 53 W/m 12,9 km/h (3 Bft) 100,00 %
27.11.2022 10:40 6,6 C 6,1 C 3,3 C 88 % 1022,0 hPa 0,0 l/m 0 min 0 min 50 W/m 19,3 km/h (3 Bft) 100,00 %
27.11.2022 10:42 6,7 C 6,1 C 3,3 C 88 % 1021,9 hPa 0,0 l/m 0 min 0 min 48 W/m 19,3 km/h (3 Bft) 97,87 %
27.11.2022 10:44 6,7 C 6,1 C 3,3 C 88 % 1021,9 hPa 0,0 l/m 0 min 0 min 46 W/m 16,1 km/h (3 Bft) 100,00 %
27.11.2022 10:46 6,7 C 6,1 C 3,3 C 88 % 1022,0 hPa 0,0 l/m 0 min 0 min 46 W/m 12,9 km/h (3 Bft) 97,83 %
27.11.2022 10:48 6,7 C 6,1 C 3,3 C 88 % 1022,0 hPa 0,0 l/m 0 min 0 min 46 W/m 16,1 km/h (3 Bft) 97,87 %
27.11.2022 10:50 6,7 C 6,7 C 3,3 C 88 % 1022,0 hPa 0,0 l/m 0 min 0 min 46 W/m 12,9 km/h (3 Bft) 97,87 %
27.11.2022 10:52 6,7 C 6,7 C 3,3 C 88 % 1022,0 hPa 0,0 l/m 0 min 0 min 46 W/m 12,9 km/h (3 Bft) 97,87 %
27.11.2022 10:54 6,8 C 6,7 C 3,3 C 88 % 1021,9 hPa 0,0 l/m 0 min 0 min 46 W/m 16,1 km/h (3 Bft) 93,62 %
27.11.2022 10:56 6,8 C 6,7 C 3,3 C 88 % 1021,9 hPa 0,0 l/m 0 min 0 min 51 W/m 6,4 km/h (2 Bft) 97,87 %
27.11.2022 10:58 6,8 C 6,7 C 3,3 C 88 % 1021,8 hPa 0,0 l/m 0 min 0 min 56 W/m 16,1 km/h (3 Bft) 97,83 %
27.11.2022 11:00 6,8 C 6,7 C 3,3 C 88 % 1021,8 hPa 0,0 l/m 0 min 0 min 60 W/m 19,3 km/h (3 Bft) 95,74 %
27.11.2022 11:02 6,8 C 6,7 C 3,3 C 88 % 1021,8 hPa 0,0 l/m 0 min 0 min 66 W/m 19,3 km/h (3 Bft) 97,87 %
27.11.2022 11:04 6,8 C 6,7 C 3,3 C 88 % 1021,8 hPa 0,0 l/m 0 min 0 min 70 W/m 16,1 km/h (3 Bft) 95,74 %
27.11.2022 11:06 6,9 C 6,7 C 3,3 C 88 % 1021,8 hPa 0,0 l/m 0 min 0 min 71 W/m 12,9 km/h (3 Bft) 94,83 %
27.11.2022 11:08 6,9 C 6,7 C 3,3 C 88 % 1021,8 hPa 0,0 l/m 0 min 0 min 74 W/m 16,1 km/h (3 Bft) 97,22 %
27.11.2022 11:10 6,9 C 6,7 C 3,3 C 88 % 1021,8 hPa 0,0 l/m 0 min 0 min 76 W/m 16,1 km/h (3 Bft) 97,83 %
27.11.2022 11:12 6,9 C 6,7 C 3,3 C 88 % 1021,7 hPa 0,0 l/m 0 min 0 min 76 W/m 16,1 km/h (3 Bft) 95,74 %
27.11.2022 11:14 6,9 C 6,7 C 3,9 C 88 % 1021,8 hPa 0,0 l/m 0 min 0 min 77 W/m 12,9 km/h (3 Bft) 97,87 %
27.11.2022 11:16 7,0 C 6,7 C 3,9 C 88 % 1021,7 hPa 0,0 l/m 0 min 0 min 79 W/m 22,5 km/h (4 Bft) 95,74 %
27.11.2022 11:18 7,0 C 6,7 C 3,9 C 88 % 1021,6 hPa 0,0 l/m 0 min 0 min 80 W/m 16,1 km/h (3 Bft) 97,87 %
27.11.2022 11:20 7,1 C 6,7 C 3,9 C 88 % 1021,6 hPa 0,0 l/m 0 min 0 min 81 W/m 12,9 km/h (3 Bft) 97,87 %
27.11.2022 11:22 7,1 C 6,7 C 3,9 C 88 % 1021,6 hPa 0,0 l/m 0 min 0 min 83 W/m 19,3 km/h (3 Bft) 97,83 %
27.11.2022 11:24 7,1 C 6,7 C 3,9 C 88 % 1021,6 hPa 0,0 l/m 0 min 0 min 83 W/m 16,1 km/h (3 Bft) 95,74 %
27.11.2022 11:26 7,1 C 6,7 C 3,9 C 88 % 1021,6 hPa 0,0 l/m 0 min 0 min 81 W/m 19,3 km/h (3 Bft) 97,87 %
27.11.2022 11:28 7,1 C 6,7 C 3,9 C 88 % 1021,6 hPa 0,0 l/m 0 min 0 min 80 W/m 12,9 km/h (3 Bft) 97,87 %
27.11.2022 11:30 7,1 C 6,7 C 3,9 C 88 % 1021,4 hPa 0,0 l/m 0 min 0 min 77 W/m 12,9 km/h (3 Bft) 97,87 %
27.11.2022 11:32 7,2 C 6,7 C 3,9 C 88 % 1021,5 hPa 0,0 l/m 0 min 0 min 73 W/m 16,1 km/h (3 Bft) 97,87 %
27.11.2022 11:34 7,2 C 6,7 C 3,9 C 88 % 1021,4 hPa 0,0 l/m 0 min 0 min 67 W/m 12,9 km/h (3 Bft) 97,87 %
27.11.2022 11:36 7,2 C 6,7 C 3,3 C 88 % 1021,3 hPa 0,0 l/m 0 min 0 min 61 W/m 16,1 km/h (3 Bft) 93,62 %
27.11.2022 11:38 7,2 C 6,7 C 3,3 C 88 % 1021,2 hPa 0,0 l/m 0 min 0 min 55 W/m 29,0 km/h (5 Bft) 95,74 %
27.11.2022 11:40 7,2 C 6,7 C 3,3 C 88 % 1020,9 hPa 0,0 l/m 0 min 0 min 51 W/m 22,5 km/h (4 Bft) 97,87 %
27.11.2022 11:42 7,2 C 6,7 C 3,3 C 88 % 1021,0 hPa 0,0 l/m 0 min 0 min 50 W/m 12,9 km/h (3 Bft) 97,87 %
27.11.2022 11:44 7,2 C 6,7 C 3,3 C 88 % 1020,9 hPa 0,0 l/m 0 min 0 min 53 W/m 25,7 km/h (4 Bft) 100,00 %
27.11.2022 11:46 7,2 C 6,7 C 3,3 C 88 % 1020,7 hPa 0,0 l/m 0 min 0 min 55 W/m 22,5 km/h (4 Bft) 100,00 %
27.11.2022 11:48 7,2 C 6,7 C 3,3 C 88 % 1020,7 hPa 0,0 l/m 0 min 2 min 59 W/m 22,5 km/h (4 Bft) 97,87 %
27.11.2022 11:50 7,2 C 6,7 C 3,3 C 88 % 1020,6 hPa 0,0 l/m 0 min 2 min 62 W/m 12,9 km/h (3 Bft) 100,00 %
27.11.2022 11:52 7,2 C 6,7 C 3,3 C 88 % 1020,6 hPa 0,0 l/m 0 min 2 min 65 W/m 22,5 km/h (4 Bft) 97,87 %
27.11.2022 11:54 7,2 C 6,7 C 3,3 C 88 % 1020,6 hPa 0,0 l/m 0 min 2 min 67 W/m 19,3 km/h (3 Bft) 100,00 %
27.11.2022 11:56 7,2 C 6,7 C 3,3 C 88 % 1020,6 hPa 0,0 l/m 0 min 0 min 69 W/m 19,3 km/h (3 Bft) 95,65 %
27.11.2022 11:58 7,2 C 6,7 C 3,3 C 88 % 1020,8 hPa 0,0 l/m 0 min 0 min 70 W/m 16,1 km/h (3 Bft) 95,74 %
27.11.2022 12:00 7,2 C 6,7 C 3,3 C 88 % 1020,7 hPa 0,0 l/m 0 min 0 min 71 W/m 12,9 km/h (3 Bft) 95,74 %
27.11.2022 12:02 7,3 C 6,7 C 3,3 C 88 % 1020,7 hPa 0,0 l/m 0 min 0 min 73 W/m 12,9 km/h (3 Bft) 97,62 %
27.11.2022 12:04 7,3 C 7,2 C 3,3 C 88 % 1020,8 hPa 0,0 l/m 0 min 0 min 76 W/m 9,7 km/h (2 Bft) 95,74 %
27.11.2022 12:07 7,3 C 7,2 C 3,3 C 88 % 1020,5 hPa 0,0 l/m 0 min 0 min 79 W/m 19,3 km/h (3 Bft) 95,12 %
27.11.2022 12:08 7,3 C 7,2 C 3,3 C 88 % 1020,5 hPa 0,0 l/m 0 min 0 min 82 W/m 12,9 km/h (3 Bft) 91,30 %
27.11.2022 12:12 7,3 C 7,2 C 3,9 C 88 % 1020,4 hPa 0,0 l/m 0 min 0 min 86 W/m 12,9 km/h (3 Bft) 91,38 %
27.11.2022 12:14 7,4 C 7,2 C 3,9 C 88 % 1020,5 hPa 0,0 l/m 0 min 0 min 88 W/m 19,3 km/h (3 Bft) 95,74 %
27.11.2022 12:16 7,4 C 7,2 C 3,9 C 88 % 1020,5 hPa 0,0 l/m 0 min 0 min 86 W/m 16,1 km/h (3 Bft) 95,74 %
27.11.2022 12:18 7,4 C 7,2 C 3,9 C 87 % 1020,5 hPa 0,0 l/m 0 min 0 min 83 W/m 16,1 km/h (3 Bft) 95,74 %
27.11.2022 12:20 7,4 C 7,2 C 3,9 C 87 % 1020,4 hPa 0,0 l/m 0 min 0 min 81 W/m 19,3 km/h (3 Bft) 95,74 %
27.11.2022 12:22 7,5 C 7,2 C 3,9 C 87 % 1020,4 hPa 0,0 l/m 0 min 0 min 77 W/m 12,9 km/h (3 Bft) 93,48 %
27.11.2022 12:24 7,5 C 7,2 C 3,9 C 87 % 1020,4 hPa 0,0 l/m 0 min 0 min 76 W/m 16,1 km/h (3 Bft) 95,74 %
27.11.2022 12:26 7,5 C 7,2 C 3,9 C 86 % 1020,4 hPa 0,0 l/m 0 min 0 min 77 W/m 19,3 km/h (3 Bft) 95,74 %
27.11.2022 12:28 7,6 C 7,2 C 3,9 C 86 % 1020,3 hPa 0,0 l/m 0 min 0 min 80 W/m 19,3 km/h (3 Bft) 95,74 %
27.11.2022 12:30 7,6 C 7,2 C 3,9 C 86 % 1020,3 hPa 0,0 l/m 0 min 0 min 85 W/m 19,3 km/h (3 Bft) 97,87 %
27.11.2022 12:32 7,6 C 7,2 C 4,4 C 86 % 1020,3 hPa 0,0 l/m 0 min 0 min 90 W/m 19,3 km/h (3 Bft) 97,87 %
27.11.2022 12:34 7,6 C 7,2 C 4,4 C 86 % 1020,1 hPa 0,0 l/m 0 min 0 min 92 W/m 25,7 km/h (4 Bft) 97,83 %
27.11.2022 12:36 7,7 C 7,2 C 4,4 C 86 % 1020,1 hPa 0,0 l/m 0 min 0 min 98 W/m 19,3 km/h (3 Bft) 91,49 %
27.11.2022 12:38 7,7 C 7,8 C 4,4 C 86 % 1020,0 hPa 0,0 l/m 0 min 0 min 104 W/m 6,4 km/h (2 Bft) 100,00 %
27.11.2022 12:40 7,7 C 7,8 C 4,4 C 86 % 1020,0 hPa 0,0 l/m 0 min 0 min 113 W/m 25,7 km/h (4 Bft) 100,00 %
27.11.2022 12:42 7,7 C 7,8 C 4,4 C 85 % 1020,0 hPa 0,0 l/m 0 min 0 min 120 W/m 25,7 km/h (4 Bft) 97,87 %
27.11.2022 12:44 7,8 C 7,8 C 4,4 C 85 % 1019,9 hPa 0,0 l/m 0 min 0 min 125 W/m 19,3 km/h (3 Bft) 100,00 %
27.11.2022 12:46 7,8 C 7,8 C 4,4 C 85 % 1019,8 hPa 0,0 l/m 0 min 0 min 127 W/m 19,3 km/h (3 Bft) 100,00 %
27.11.2022 12:48 7,8 C 7,8 C 4,4 C 85 % 1019,7 hPa 0,0 l/m 0 min 0 min 126 W/m 25,7 km/h (4 Bft) 100,00 %
27.11.2022 12:50 7,9 C 7,8 C 4,4 C 85 % 1019,7 hPa 0,0 l/m 0 min 0 min 124 W/m 22,5 km/h (4 Bft) 100,00 %
27.11.2022 12:52 7,9 C 7,8 C 4,4 C 85 % 1019,7 hPa 0,0 l/m 0 min 0 min 123 W/m 16,1 km/h (3 Bft) 97,87 %
27.11.2022 12:54 8,0 C 7,8 C 4,4 C 85 % 1019,7 hPa 0,0 l/m 0 min 0 min 121 W/m 25,7 km/h (4 Bft) 100,00 %
27.11.2022 12:56 8,1 C 7,8 C 4,4 C 85 % 1019,6 hPa 0,0 l/m 0 min 0 min 120 W/m 16,1 km/h (3 Bft) 100,00 %
27.11.2022 12:58 8,1 C 7,8 C 4,4 C 85 % 1019,7 hPa 0,0 l/m 0 min 0 min 119 W/m 25,7 km/h (4 Bft) 97,83 %
27.11.2022 13:00 8,1 C 8,3 C 4,4 C 84 % 1019,7 hPa 0,0 l/m 0 min 0 min 117 W/m 16,1 km/h (3 Bft) 97,87 %
27.11.2022 13:02 8,1 C 8,3 C 4,4 C 84 % 1019,7 hPa 0,0 l/m 0 min 0 min 114 W/m 12,9 km/h (3 Bft) 100,00 %
27.11.2022 13:04 8,2 C 8,3 C 4,4 C 84 % 1019,7 hPa 0,0 l/m 0 min 0 min 109 W/m 16,1 km/h (3 Bft) 100,00 %
27.11.2022 13:06 8,2 C 8,3 C 5,0 C 83 % 1019,7 hPa 0,0 l/m 0 min 0 min 104 W/m 12,9 km/h (3 Bft) 100,00 %
27.11.2022 13:08 8,2 C 8,3 C 5,0 C 83 % 1019,7 hPa 0,0 l/m 0 min 0 min 102 W/m 16,1 km/h (3 Bft) 100,00 %
27.11.2022 13:10 8,2 C 8,3 C 5,0 C 83 % 1019,6 hPa 0,0 l/m 0 min 0 min 103 W/m 16,1 km/h (3 Bft) 100,00 %
27.11.2022 13:12 8,3 C 8,3 C 5,0 C 83 % 1019,6 hPa 0,0 l/m 0 min 0 min 106 W/m 12,9 km/h (3 Bft) 100,00 %
27.11.2022 13:14 8,3 C 8,3 C 5,0 C 83 % 1019,6 hPa 0,0 l/m 0 min 0 min 112 W/m 12,9 km/h (3 Bft) 100,00 %
27.11.2022 13:16 8,3 C 8,3 C 5,0 C 83 % 1019,5 hPa 0,0 l/m 0 min 0 min 117 W/m 16,1 km/h (3 Bft) 98,15 %
27.11.2022 13:18 8,4 C 8,3 C 5,0 C 83 % 1019,5 hPa 0,0 l/m 0 min 0 min 121 W/m 22,5 km/h (4 Bft) 100,00 %
27.11.2022 13:20 8,4 C 8,3 C 4,4 C 83 % 1019,4 hPa 0,0 l/m 0 min 0 min 126 W/m 19,3 km/h (3 Bft) 100,00 %
27.11.2022 13:22 8,4 C 8,3 C 4,4 C 83 % 1019,4 hPa 0,0 l/m 0 min 0 min 126 W/m 22,5 km/h (4 Bft) 100,00 %
27.11.2022 13:24 8,5 C 8,3 C 4,4 C 82 % 1019,4 hPa 0,0 l/m 0 min 0 min 123 W/m 25,7 km/h (4 Bft) 97,87 %
27.11.2022 13:26 8,5 C 8,3 C 5,0 C 82 % 1019,4 hPa 0,0 l/m 0 min 0 min 119 W/m 22,5 km/h (4 Bft) 100,00 %
27.11.2022 13:28 8,6 C 8,3 C 5,0 C 82 % 1019,4 hPa 0,0 l/m 0 min 0 min 116 W/m 22,5 km/h (4 Bft) 100,00 %
27.11.2022 13:30 8,6 C 8,3 C 5,0 C 82 % 1019,3 hPa 0,0 l/m 0 min 0 min 113 W/m 19,3 km/h (3 Bft) 100,00 %
27.11.2022 13:32 8,6 C 8,3 C 5,0 C 82 % 1019,4 hPa 0,0 l/m 0 min 0 min 112 W/m 12,9 km/h (3 Bft) 100,00 %
27.11.2022 13:34 8,6 C 8,3 C 5,0 C 82 % 1019,4 hPa 0,0 l/m 0 min 0 min 107 W/m 25,7 km/h (4 Bft) 100,00 %
27.11.2022 13:36 8,6 C 8,3 C 5,0 C 82 % 1019,3 hPa 0,0 l/m 0 min 0 min 101 W/m 16,1 km/h (3 Bft) 95,74 %
27.11.2022 13:38 8,7 C 8,3 C 5,0 C 82 % 1019,3 hPa 0,0 l/m 0 min 0 min 96 W/m 25,7 km/h (4 Bft) 97,37 %
27.11.2022 13:40 8,7 C 8,3 C 5,0 C 82 % 1019,3 hPa 0,0 l/m 0 min 0 min 95 W/m 19,3 km/h (3 Bft) 97,96 %
27.11.2022 13:42 8,7 C 8,3 C 5,0 C 82 % 1019,2 hPa 0,0 l/m 0 min 0 min 93 W/m 16,1 km/h (3 Bft) 95,74 %
27.11.2022 13:44 8,7 C 8,3 C 5,0 C 82 % 1019,2 hPa 0,0 l/m 0 min 0 min 94 W/m 16,1 km/h (3 Bft) 96,30 %
27.11.2022 13:46 8,7 C 8,3 C 5,0 C 82 % 1019,1 hPa 0,0 l/m 0 min 0 min 100 W/m 16,1 km/h (3 Bft) 97,83 %
27.11.2022 13:48 8,7 C 8,3 C 5,0 C 82 % 1019,1 hPa 0,0 l/m 0 min 0 min 110 W/m 16,1 km/h (3 Bft) 95,74 %
27.11.2022 13:50 8,8 C 8,3 C 5,0 C 82 % 1019,0 hPa 0,0 l/m 0 min 0 min 124 W/m 16,1 km/h (3 Bft) 97,87 %
27.11.2022 13:52 8,8 C 8,9 C 5,0 C 82 % 1019,0 hPa 0,0 l/m 0 min 0 min 128 W/m 12,9 km/h (3 Bft) 97,37 %
27.11.2022 13:54 8,8 C 8,9 C 5,0 C 81 % 1019,0 hPa 0,0 l/m 0 min 0 min 124 W/m 16,1 km/h (3 Bft) 97,87 %
27.11.2022 13:56 8,8 C 8,9 C 5,0 C 81 % 1018,9 hPa 0,0 l/m 0 min 0 min 114 W/m 12,9 km/h (3 Bft) 97,87 %
27.11.2022 13:58 8,8 C 8,9 C 5,0 C 81 % 1018,9 hPa 0,0 l/m 0 min 0 min 101 W/m 12,9 km/h (3 Bft) 95,74 %
27.11.2022 14:00 8,8 C 8,3 C 5,0 C 81 % 1018,8 hPa 0,0 l/m 0 min 0 min 95 W/m 16,1 km/h (3 Bft) 93,75 %
27.11.2022 14:02 8,8 C 8,3 C 5,0 C 81 % 1018,8 hPa 0,0 l/m 0 min 0 min 93 W/m 16,1 km/h (3 Bft) 95,74 %
27.11.2022 14:04 8,8 C 8,3 C 5,0 C 81 % 1018,7 hPa 0,0 l/m 0 min 0 min 94 W/m 16,1 km/h (3 Bft) 95,92 %
27.11.2022 14:06 8,9 C 8,3 C 5,0 C 81 % 1018,5 hPa 0,0 l/m 0 min 2 min 87 W/m 16,1 km/h (3 Bft) 93,48 %
27.11.2022 14:08 8,9 C 8,3 C 5,0 C 81 % 1018,5 hPa 0,0 l/m 0 min 0 min 76 W/m 19,3 km/h (3 Bft) 95,74 %
27.11.2022 14:10 8,9 C 8,3 C 5,0 C 81 % 1018,4 hPa 0,0 l/m 0 min 0 min 72 W/m 16,1 km/h (3 Bft) 95,45 %
27.11.2022 14:12 8,9 C 8,3 C 5,0 C 81 % 1018,5 hPa 0,0 l/m 0 min 0 min 70 W/m 16,1 km/h (3 Bft) 54,55 %
27.11.2022 14:14 8,9 C 8,3 C 5,0 C 81 % 1018,5 hPa 0,0 l/m 0 min 0 min 66 W/m 16,1 km/h (3 Bft) 95,83 %
27.11.2022 14:16 8,8 C 8,3 C 4,4 C 81 % 1018,5 hPa 0,0 l/m 0 min 2 min 62 W/m 19,3 km/h (3 Bft) 91,49 %
27.11.2022 14:18 8,8 C 8,3 C 4,4 C 81 % 1018,4 hPa 0,0 l/m 0 min 2 min 58 W/m 9,7 km/h (2 Bft) 95,65 %
27.11.2022 14:20 8,8 C 8,3 C 4,4 C 81 % 1018,5 hPa 0,0 l/m 0 min 2 min 58 W/m 16,1 km/h (3 Bft) 93,62 %
27.11.2022 14:22 8,8 C 8,3 C 4,4 C 82 % 1018,5 hPa 0,0 l/m 0 min 0 min 56 W/m 16,1 km/h (3 Bft) 95,45 %
27.11.2022 14:24 8,8 C 8,3 C 4,4 C 82 % 1018,5 hPa 0,0 l/m 0 min 2 min 52 W/m 16,1 km/h (3 Bft) 93,48 %
27.11.2022 14:26 8,8 C 8,3 C 4,4 C 82 % 1018,5 hPa 0,0 l/m 0 min 2 min 42 W/m 12,9 km/h (3 Bft) 97,87 %
27.11.2022 14:28 8,8 C 7,8 C 3,9 C 82 % 1018,4 hPa 0,0 l/m 0 min 2 min 38 W/m 12,9 km/h (3 Bft) 98,00 %
27.11.2022 14:30 8,8 C 7,8 C 3,9 C 83 % 1018,3 hPa 0,0 l/m 0 min 2 min 34 W/m 9,7 km/h (2 Bft) 97,87 %
27.11.2022 14:32 8,8 C 7,8 C 3,9 C 83 % 1018,3 hPa 0,2 l/m 0 min 2 min 32 W/m 12,9 km/h (3 Bft) 93,62 %
27.11.2022 14:34 8,8 C 7,8 C 3,3 C 83 % 1018,3 hPa 0,0 l/m 0 min 2 min 30 W/m 6,4 km/h (2 Bft) 97,87 %
27.11.2022 14:36 8,7 C 7,8 C 3,3 C 84 % 1018,4 hPa 0,0 l/m 0 min 2 min 26 W/m 9,7 km/h (2 Bft) 100,00 %
27.11.2022 14:38 8,7 C 7,8 C 3,3 C 84 % 1018,3 hPa 0,0 l/m 0 min 2 min 25 W/m 19,3 km/h (3 Bft) 97,67 %
27.11.2022 14:40 8,6 C 7,8 C 3,3 C 84 % 1018,2 hPa 0,0 l/m 0 min 0 min 26 W/m 16,1 km/h (3 Bft) 97,87 %
27.11.2022 14:42 8,6 C 7,8 C 3,3 C 84 % 1018,2 hPa 0,0 l/m 0 min 0 min 29 W/m 3,2 km/h (1 Bft) 98,00 %
27.11.2022 14:44 8,6 C 7,8 C 3,3 C 84 % 1018,3 hPa 0,0 l/m 0 min 0 min 35 W/m 6,4 km/h (2 Bft) 95,74 %
27.11.2022 14:46 8,6 C 7,8 C 3,3 C 85 % 1018,2 hPa 0,0 l/m 0 min 0 min 38 W/m 3,2 km/h (1 Bft) 97,87 %
27.11.2022 14:48 8,6 C 7,8 C 3,3 C 85 % 1018,2 hPa 0,0 l/m 0 min 0 min 39 W/m 6,4 km/h (2 Bft) 95,74 %
27.11.2022 14:50 8,5 C 7,8 C 3,3 C 85 % 1018,3 hPa 0,0 l/m 0 min 0 min 39 W/m 12,9 km/h (3 Bft) 97,87 %
27.11.2022 14:52 8,5 C 7,8 C 3,3 C 85 % 1018,2 hPa 0,0 l/m 0 min 0 min 39 W/m 16,1 km/h (3 Bft) 97,67 %
27.11.2022 14:54 8,5 C 7,8 C 3,3 C 85 % 1018,2 hPa 0,0 l/m 0 min 0 min 39 W/m 6,4 km/h (2 Bft) 97,87 %
27.11.2022 14:56 8,4 C 7,8 C 3,9 C 85 % 1018,2 hPa 0,0 l/m 0 min 0 min 39 W/m 6,4 km/h (2 Bft) 97,87 %
27.11.2022 14:58 8,4 C 7,8 C 3,9 C 85 % 1018,2 hPa 0,0 l/m 0 min 0 min 40 W/m 6,4 km/h (2 Bft) 97,87 %
27.11.2022 15:00 8,4 C 7,8 C 3,9 C 85 % 1018,2 hPa 0,0 l/m 0 min 0 min 38 W/m 12,9 km/h (3 Bft) 97,96 %
27.11.2022 15:02 8,4 C 7,8 C 3,9 C 85 % 1018,2 hPa 0,0 l/m 0 min 0 min 33 W/m 12,9 km/h (3 Bft) 97,87 %
27.11.2022 15:04 8,4 C 7,8 C 3,9 C 85 % 1018,4 hPa 0,0 l/m 0 min 0 min 28 W/m 12,9 km/h (3 Bft) 95,74 %
27.11.2022 15:06 8,4 C 7,8 C 3,9 C 85 % 1018,4 hPa 0,0 l/m 0 min 0 min 25 W/m 9,7 km/h (2 Bft) 97,87 %
27.11.2022 15:08 8,4 C 7,8 C 4,4 C 85 % 1018,4 hPa 0,0 l/m 0 min 2 min 24 W/m 6,4 km/h (2 Bft) 97,87 %
27.11.2022 15:10 8,4 C 7,8 C 4,4 C 85 % 1018,3 hPa 0,0 l/m 0 min 2 min 21 W/m 16,1 km/h (3 Bft) 95,74 %
27.11.2022 15:12 8,4 C 7,8 C 4,4 C 85 % 1018,3 hPa 0,0 l/m 0 min 0 min 17 W/m 16,1 km/h (3 Bft) 95,74 %
27.11.2022 15:14 8,4 C 7,8 C 4,4 C 85 % 1018,0 hPa 0,0 l/m 0 min 0 min 15 W/m 6,4 km/h (2 Bft) 97,87 %
27.11.2022 15:16 8,4 C 7,8 C 4,4 C 85 % 1018,1 hPa 0,0 l/m 0 min 0 min 16 W/m 12,9 km/h (3 Bft) 97,83 %
27.11.2022 15:18 8,4 C 7,8 C 3,9 C 85 % 1018,0 hPa 0,0 l/m 0 min 0 min 16 W/m 6,4 km/h (2 Bft) 97,87 %
27.11.2022 15:20 8,4 C 7,8 C 3,9 C 85 % 1017,9 hPa 0,0 l/m 0 min 2 min 15 W/m 19,3 km/h (3 Bft) 100,00 %
27.11.2022 15:22 8,4 C 7,8 C 3,9 C 85 % 1017,9 hPa 0,0 l/m 0 min 0 min 14 W/m 6,4 km/h (2 Bft) 97,87 %
27.11.2022 15:24 8,3 C 7,8 C 3,9 C 85 % 1018,3 hPa 0,0 l/m 0 min 0 min 12 W/m 12,9 km/h (3 Bft) 100,00 %
27.11.2022 15:26 8,3 C 7,8 C 3,9 C 85 % 1018,0 hPa 0,0 l/m 0 min 0 min 12 W/m 12,9 km/h (3 Bft) 97,87 %
27.11.2022 15:28 8,3 C 7,8 C 3,9 C 85 % 1018,0 hPa 0,0 l/m 0 min 2 min 12 W/m 6,4 km/h (2 Bft) 100,00 %
27.11.2022 15:30 8,3 C 7,8 C 3,9 C 85 % 1018,0 hPa 0,0 l/m 0 min 0 min 12 W/m 6,4 km/h (2 Bft) 100,00 %
27.11.2022 15:32 8,3 C 7,8 C 3,9 C 86 % 1018,0 hPa 0,0 l/m 0 min 0 min 12 W/m 16,1 km/h (3 Bft) 100,00 %
27.11.2022 15:34 8,3 C 7,8 C 3,9 C 86 % 1017,9 hPa 0,0 l/m 0 min 2 min 12 W/m 12,9 km/h (3 Bft) 100,00 %
27.11.2022 15:36 8,3 C 7,8 C 3,9 C 86 % 1017,8 hPa 0,0 l/m 0 min 2 min 11 W/m 12,9 km/h (3 Bft) 100,00 %
27.11.2022 15:38 8,3 C 7,8 C 3,9 C 86 % 1017,6 hPa 0,0 l/m 0 min 2 min 11 W/m 16,1 km/h (3 Bft) 97,87 %
27.11.2022 15:40 8,2 C 7,8 C 3,9 C 86 % 1017,6 hPa 0,0 l/m 0 min 2 min 11 W/m 12,9 km/h (3 Bft) 100,00 %
27.11.2022 15:42 8,2 C 7,8 C 3,9 C 86 % 1017,5 hPa 0,0 l/m 0 min 0 min 12 W/m 16,1 km/h (3 Bft) 100,00 %
27.11.2022 15:44 8,2 C 7,8 C 3,3 C 86 % 1017,4 hPa 0,0 l/m 0 min 0 min 12 W/m 16,1 km/h (3 Bft) 97,73 %
27.11.2022 15:46 8,2 C 7,8 C 3,3 C 85 % 1017,4 hPa 0,0 l/m 0 min 0 min 11 W/m 12,9 km/h (3 Bft) 97,96 %
27.11.2022 15:48 8,2 C 7,8 C 3,3 C 85 % 1017,3 hPa 0,0 l/m 0 min 0 min 11 W/m 16,1 km/h (3 Bft) 100,00 %
27.11.2022 15:50 8,2 C 7,8 C 3,3 C 85 % 1017,3 hPa 0,0 l/m 0 min 0 min 11 W/m 16,1 km/h (3 Bft) 97,87 %
27.11.2022 15:52 8,2 C 7,8 C 3,3 C 85 % 1017,3 hPa 0,0 l/m 0 min 0 min 11 W/m 22,5 km/h (4 Bft) 100,00 %
27.11.2022 15:54 8,2 C 7,8 C 3,9 C 85 % 1017,5 hPa 0,0 l/m 0 min 0 min 9 W/m 12,9 km/h (3 Bft) 98,00 %
27.11.2022 15:56 8,2 C 7,8 C 3,9 C 85 % 1017,6 hPa 0,0 l/m 0 min 0 min 9 W/m 16,1 km/h (3 Bft) 97,87 %
27.11.2022 15:58 8,2 C 7,8 C 3,9 C 85 % 1017,6 hPa 0,0 l/m 0 min 0 min 9 W/m 12,9 km/h (3 Bft) 97,87 %
27.11.2022 16:00 8,2 C 7,8 C 3,9 C 85 % 1017,6 hPa 0,0 l/m 0 min 0 min 8 W/m 9,7 km/h (2 Bft) 97,87 %
27.11.2022 16:02 8,2 C 7,8 C 3,9 C 85 % 1017,6 hPa 0,0 l/m 0 min 0 min 7 W/m 19,3 km/h (3 Bft) 97,67 %
27.11.2022 16:04 8,2 C 7,8 C 3,9 C 85 % 1017,6 hPa 0,0 l/m 0 min 0 min 7 W/m 12,9 km/h (3 Bft) 98,00 %
27.11.2022 16:06 8,2 C 7,2 C 3,9 C 85 % 1017,6 hPa 0,0 l/m 0 min 0 min 7 W/m 16,1 km/h (3 Bft) 97,87 %
27.11.2022 16:08 8,2 C 7,2 C 3,9 C 85 % 1017,5 hPa 0,0 l/m 0 min 0 min 5 W/m 12,9 km/h (3 Bft) 97,87 %
27.11.2022 16:10 8,2 C 7,2 C 3,9 C 85 % 1017,6 hPa 0,0 l/m 0 min 0 min 5 W/m 19,3 km/h (3 Bft) 97,87 %
27.11.2022 16:12 8,2 C 7,2 C 3,9 C 85 % 1017,5 hPa 0,0 l/m 0 min 0 min 5 W/m 19,3 km/h (3 Bft) 97,87 %
27.11.2022 16:14 8,2 C 7,2 C 3,9 C 85 % 1017,5 hPa 0,0 l/m 0 min 0 min 3 W/m 16,1 km/h (3 Bft) 98,08 %
27.11.2022 16:16 8,2 C 7,2 C 3,9 C 85 % 1017,5 hPa 0,0 l/m 0 min 0 min 0 W/m 29,0 km/h (5 Bft) 97,73 %
27.11.2022 16:18 8,2 C 7,2 C 3,9 C 85 % 1017,4 hPa 0,0 l/m 0 min 0 min 0 W/m 12,9 km/h (3 Bft) 97,87 %
27.11.2022 16:20 8,1 C 7,2 C 3,9 C 85 % 1017,3 hPa 0,0 l/m 0 min 0 min 0 W/m 12,9 km/h (3 Bft) 95,74 %
27.11.2022 16:22 8,1 C 7,2 C 3,9 C 85 % 1017,2 hPa 0,0 l/m 0 min 0 min 0 W/m 19,3 km/h (3 Bft) 94,29 %
27.11.2022 16:24 8,1 C 7,2 C 3,9 C 85 % 1017,2 hPa 0,0 l/m 0 min 0 min 0 W/m 12,9 km/h (3 Bft) 96,36 %
27.11.2022 16:26 8,1 C 7,2 C 3,9 C 85 % 1017,2 hPa 0,0 l/m 0 min 0 min 0 W/m 16,1 km/h (3 Bft) 100,00 %
27.11.2022 16:28 8,1 C 7,2 C 3,9 C 85 % 1017,1 hPa 0,0 l/m 0 min 0 min 0 W/m 16,1 km/h (3 Bft) 100,00 %
27.11.2022 16:30 8,1 C 7,2 C 3,9 C 85 % 1017,1 hPa 0,0 l/m 0 min 0 min 0 W/m 16,1 km/h (3 Bft) 100,00 %
27.11.2022 16:32 8,1 C 7,2 C 3,9 C 85 % 1017,1 hPa 0,0 l/m 0 min 0 min 0 W/m 29,0 km/h (5 Bft) 95,74 %
27.11.2022 16:34 8,1 C 7,2 C 3,9 C 85 % 1017,0 hPa 0,0 l/m 0 min 0 min 0 W/m 22,5 km/h (4 Bft) 97,14 %
27.11.2022 16:36 8,1 C 7,2 C 3,9 C 85 % 1017,0 hPa 0,0 l/m 0 min 0 min 0 W/m 16,1 km/h (3 Bft) 97,87 %
27.11.2022 16:38 8,1 C 7,2 C 3,9 C 85 % 1016,9 hPa 0,0 l/m 0 min 0 min 0 W/m 19,3 km/h (3 Bft) 96,36 %
27.11.2022 16:40 8,1 C 7,2 C 3,9 C 85 % 1016,8 hPa 0,0 l/m 0 min 0 min 0 W/m 16,1 km/h (3 Bft) 97,87 %
27.11.2022 16:42 8,0 C 7,2 C 3,9 C 85 % 1017,0 hPa 0,0 l/m 0 min 0 min 0 W/m 19,3 km/h (3 Bft) 93,62 %
27.11.2022 16:44 8,0 C 7,2 C 3,9 C 85 % 1017,2 hPa 0,0 l/m 0 min 0 min 0 W/m 16,1 km/h (3 Bft) 95,65 %
27.11.2022 16:46 8,0 C 7,2 C 3,9 C 85 % 1017,2 hPa 0,0 l/m 0 min 0 min 0 W/m 19,3 km/h (3 Bft) 97,87 %
27.11.2022 16:48 8,0 C 7,2 C 3,9 C 85 % 1017,2 hPa 0,0 l/m 0 min 0 min 0 W/m 16,1 km/h (3 Bft) 98,00 %
27.11.2022 16:50 8,0 C 7,2 C 3,9 C 85 % 1017,2 hPa 0,0 l/m 0 min 0 min 0 W/m 16,1 km/h (3 Bft) 97,87 %
27.11.2022 16:52 8,0 C 7,2 C 3,9 C 85 % 1017,2 hPa 0,0 l/m 0 min 0 min 0 W/m 16,1 km/h (3 Bft) 93,62 %
27.11.2022 16:54 8,0 C 7,2 C 3,9 C 85 % 1017,2 hPa 0,0 l/m 0 min 0 min 0 W/m 25,7 km/h (4 Bft) 97,14 %
27.11.2022 16:56 8,0 C 7,2 C 3,9 C 85 % 1017,1 hPa 0,0 l/m 0 min 0 min 0 W/m 19,3 km/h (3 Bft) 95,74 %
27.11.2022 16:58 8,0 C 7,2 C 3,9 C 84 % 1017,1 hPa 0,0 l/m 0 min 0 min 0 W/m 22,5 km/h (4 Bft) 97,87 %
27.11.2022 17:00 8,0 C 7,2 C 3,9 C 84 % 1017,1 hPa 0,0 l/m 0 min 0 min 0 W/m 19,3 km/h (3 Bft) 98,18 %
27.11.2022 17:02 8,0 C 7,2 C 3,9 C 85 % 1017,2 hPa 0,0 l/m 0 min 0 min 0 W/m 22,5 km/h (4 Bft) 95,74 %
27.11.2022 17:04 8,0 C 7,2 C 3,9 C 85 % 1017,1 hPa 0,0 l/m 0 min 0 min 0 W/m 29,0 km/h (5 Bft) 96,00 %
27.11.2022 17:06 8,0 C 7,2 C 3,9 C 84 % 1017,0 hPa 0,0 l/m 0 min 0 min 0 W/m 19,3 km/h (3 Bft) 95,92 %
27.11.2022 17:08 8,0 C 7,2 C 3,9 C 84 % 1017,1 hPa 0,0 l/m 0 min 0 min 0 W/m 22,5 km/h (4 Bft) 91,49 %
27.11.2022 17:10 8,0 C 7,2 C 3,9 C 85 % 1017,0 hPa 0,0 l/m 0 min 0 min 0 W/m 19,3 km/h (3 Bft) 95,74 %
27.11.2022 17:12 8,0 C 7,2 C 3,9 C 84 % 1017,0 hPa 0,0 l/m 0 min 0 min 0 W/m 19,3 km/h (3 Bft) 94,29 %
27.11.2022 17:14 7,9 C 7,2 C 3,9 C 84 % 1016,9 hPa 0,0 l/m 0 min 0 min 0 W/m 16,1 km/h (3 Bft) 91,49 %
27.11.2022 17:16 7,9 C 7,2 C 3,9 C 85 % 1016,9 hPa 0,0 l/m 0 min 0 min 0 W/m 19,3 km/h (3 Bft) 95,65 %
27.11.2022 17:18 7,9 C 7,2 C 3,9 C 85 % 1016,9 hPa 0,0 l/m 0 min 0 min 0 W/m 19,3 km/h (3 Bft) 96,23 %
27.11.2022 17:20 7,9 C 7,2 C 3,9 C 85 % 1016,9 hPa 0,0 l/m 0 min 0 min 0 W/m 16,1 km/h (3 Bft) 95,74 %
27.11.2022 17:22 7,9 C 7,2 C 3,9 C 85 % 1016,9 hPa 0,0 l/m 0 min 0 min 0 W/m 22,5 km/h (4 Bft) 95,74 %
27.11.2022 17:24 7,9 C 7,2 C 3,9 C 85 % 1016,8 hPa 0,0 l/m 0 min 0 min 0 W/m 25,7 km/h (4 Bft) 97,87 %
27.11.2022 17:26 7,9 C 7,2 C 3,9 C 85 % 1016,8 hPa 0,0 l/m 0 min 0 min 0 W/m 22,5 km/h (4 Bft) 100,00 %
27.11.2022 17:28 7,9 C 7,2 C 3,9 C 85 % 1016,7 hPa 0,0 l/m 0 min 0 min 0 W/m 16,1 km/h (3 Bft) 97,87 %
27.11.2022 17:30 7,9 C 7,2 C 3,9 C 85 % 1016,7 hPa 0,0 l/m 0 min 0 min 0 W/m 16,1 km/h (3 Bft) 95,92 %
27.11.2022 17:32 7,9 C 7,2 C 3,9 C 85 % 1016,7 hPa 0,0 l/m 0 min 0 min 0 W/m 16,1 km/h (3 Bft) 97,87 %
27.11.2022 17:34 7,9 C 7,2 C 3,9 C 85 % 1016,7 hPa 0,0 l/m 0 min 0 min 0 W/m 16,1 km/h (3 Bft) 97,87 %
27.11.2022 17:36 7,9 C 7,2 C 3,9 C 85 % 1016,7 hPa 0,0 l/m 0 min 0 min 0 W/m 16,1 km/h (3 Bft) 97,14 %
27.11.2022 17:38 7,8 C 7,2 C 3,9 C 85 % 1016,6 hPa 0,0 l/m 0 min 0 min 0 W/m 19,3 km/h (3 Bft) 94,34 %
27.11.2022 17:40 7,8 C 7,2 C 3,9 C 85 % 1016,6 hPa 0,0 l/m 0 min 0 min 0 W/m 16,1 km/h (3 Bft) 94,00 %
27.11.2022 17:42 7,8 C 7,2 C 3,9 C 85 % 1016,6 hPa 0,0 l/m 0 min 0 min 0 W/m 19,3 km/h (3 Bft) 97,83 %
27.11.2022 17:44 7,8 C 7,2 C 3,9 C 85 % 1016,6 hPa 0,0 l/m 0 min 0 min 0 W/m 35,4 km/h (5 Bft) 95,74 %
27.11.2022 17:46 7,8 C 7,2 C 3,9 C 85 % 1016,5 hPa 0,0 l/m 0 min 0 min 0 W/m 25,7 km/h (4 Bft) 100,00 %
27.11.2022 17:48 7,8 C 7,2 C 3,9 C 85 % 1016,6 hPa 0,0 l/m 0 min 0 min 0 W/m 19,3 km/h (3 Bft) 97,83 %
27.11.2022 17:50 7,8 C 7,2 C 3,9 C 85 % 1016,6 hPa 0,0 l/m 0 min 0 min 0 W/m 19,3 km/h (3 Bft) 97,14 %
27.11.2022 17:52 7,8 C 7,2 C 3,9 C 85 % 1016,6 hPa 0,0 l/m 0 min 0 min 0 W/m 9,7 km/h (2 Bft) 95,74 %
27.11.2022 17:54 7,8 C 7,2 C 3,9 C 85 % 1016,5 hPa 0,0 l/m 0 min 0 min 0 W/m 25,7 km/h (4 Bft) 97,87 %
27.11.2022 17:56 7,8 C 7,2 C 3,9 C 85 % 1016,4 hPa 0,0 l/m 0 min 0 min 0 W/m 25,7 km/h (4 Bft) 98,11 %
27.11.2022 17:58 7,8 C 7,2 C 3,9 C 85 % 1016,3 hPa 0,0 l/m 0 min 0 min 0 W/m 16,1 km/h (3 Bft) 97,87 %
27.11.2022 18:00 7,8 C 7,2 C 3,9 C 85 % 1016,2 hPa 0,0 l/m 0 min 0 min 0 W/m 22,5 km/h (4 Bft) 97,87 %
27.11.2022 18:02 7,8 C 7,2 C 3,9 C 85 % 1016,3 hPa 0,0 l/m 0 min 0 min 0 W/m 19,3 km/h (3 Bft) 96,00 %
27.11.2022 18:04 7,8 C 7,2 C 3,9 C 86 % 1016,2 hPa 0,0 l/m 0 min 0 min 0 W/m 19,3 km/h (3 Bft) 97,83 %
27.11.2022 18:08 7,7 C 7,2 C 3,9 C 85 % 1016,1 hPa 0,0 l/m 0 min 0 min 0 W/m 19,3 km/h (3 Bft) 96,88 %
27.11.2022 18:10 7,7 C 7,2 C 3,9 C 85 % 1016,0 hPa 0,0 l/m 0 min 0 min 0 W/m 16,1 km/h (3 Bft) 95,74 %
27.11.2022 18:12 7,7 C 7,2 C 3,9 C 85 % 1015,9 hPa 0,0 l/m 0 min 0 min 0 W/m 16,1 km/h (3 Bft) 97,22 %
27.11.2022 18:14 7,7 C 7,2 C 3,9 C 85 % 1015,8 hPa 0,0 l/m 0 min 0 min 0 W/m 16,1 km/h (3 Bft) 100,00 %
27.11.2022 18:16 7,7 C 7,2 C 3,9 C 85 % 1015,8 hPa 0,0 l/m 0 min 0 min 0 W/m 16,1 km/h (3 Bft) 93,62 %
27.11.2022 18:18 7,7 C 7,2 C 3,9 C 85 % 1015,8 hPa 0,0 l/m 0 min 0 min 0 W/m 22,5 km/h (4 Bft) 97,87 %
27.11.2022 18:20 7,7 C 7,2 C 3,9 C 85 % 1015,8 hPa 0,0 l/m 0 min 0 min 0 W/m 29,0 km/h (5 Bft) 100,00 %
27.11.2022 18:22 7,7 C 7,2 C 3,9 C 85 % 1015,9 hPa 0,0 l/m 0 min 0 min 0 W/m 16,1 km/h (3 Bft) 100,00 %
27.11.2022 18:24 7,7 C 7,2 C 3,9 C 85 % 1016,0 hPa 0,0 l/m 0 min 0 min 0 W/m 16,1 km/h (3 Bft) 100,00 %
27.11.2022 18:26 7,7 C 7,2 C 3,9 C 85 % 1015,9 hPa 0,0 l/m 0 min 0 min 0 W/m 19,3 km/h (3 Bft) 98,18 %
27.11.2022 18:28 7,8 C 7,2 C 3,9 C 86 % 1016,0 hPa 0,0 l/m 0 min 0 min 0 W/m 22,5 km/h (4 Bft) 100,00 %
27.11.2022 18:30 7,8 C 7,2 C 3,9 C 85 % 1015,8 hPa 0,0 l/m 0 min 0 min 0 W/m 16,1 km/h (3 Bft) 100,00 %
27.11.2022 18:32 7,8 C 7,2 C 3,9 C 86 % 1015,8 hPa 0,0 l/m 0 min 0 min 0 W/m 19,3 km/h (3 Bft) 100,00 %
27.11.2022 18:34 7,8 C 7,2 C 3,9 C 85 % 1015,8 hPa 0,0 l/m 0 min 0 min 0 W/m 22,5 km/h (4 Bft) 100,00 %
27.11.2022 18:36 7,7 C 7,2 C 3,9 C 85 % 1015,7 hPa 0,0 l/m 0 min 0 min 0 W/m 19,3 km/h (3 Bft) 100,00 %
27.11.2022 18:38 7,7 C 7,2 C 3,9 C 85 % 1015,6 hPa 0,0 l/m 0 min 0 min 0 W/m 12,9 km/h (3 Bft) 100,00 %
27.11.2022 18:40 7,8 C 7,2 C 3,9 C 86 % 1015,5 hPa 0,0 l/m 0 min 0 min 0 W/m 22,5 km/h (4 Bft) 100,00 %
27.11.2022 18:42 7,7 C 7,2 C 3,9 C 85 % 1015,5 hPa 0,0 l/m 0 min 0 min 0 W/m 12,9 km/h (3 Bft) 98,18 %
27.11.2022 18:44 7,7 C 7,2 C 3,9 C 85 % 1015,5 hPa 0,0 l/m 0 min 0 min 0 W/m 22,5 km/h (4 Bft) 100,00 %
27.11.2022 18:46 7,7 C 7,2 C 3,9 C 86 % 1015,5 hPa 0,0 l/m 0 min 0 min 0 W/m 19,3 km/h (3 Bft) 100,00 %
27.11.2022 18:48 7,7 C 7,2 C 3,9 C 86 % 1015,5 hPa 0,0 l/m 0 min 0 min 0 W/m 19,3 km/h (3 Bft) 100,00 %
27.11.2022 18:50 7,7 C 7,2 C 3,9 C 86 % 1015,4 hPa 0,0 l/m 0 min 0 min 0 W/m 19,3 km/h (3 Bft) 100,00 %
27.11.2022 18:52 7,7 C 7,2 C 3,9 C 86 % 1015,4 hPa 0,0 l/m 0 min 0 min 0 W/m 25,7 km/h (4 Bft) 100,00 %
27.11.2022 18:54 7,7 C 7,2 C 3,9 C 86 % 1015,3 hPa 0,0 l/m 0 min 0 min 0 W/m 12,9 km/h (3 Bft) 100,00 %
27.11.2022 18:56 7,7 C 7,2 C 3,9 C 86 % 1015,3 hPa 0,0 l/m 0 min 0 min 0 W/m 12,9 km/h (3 Bft) 100,00 %
27.11.2022 18:58 7,7 C 7,2 C 3,9 C 86 % 1015,3 hPa 0,0 l/m 0 min 0 min 0 W/m 16,1 km/h (3 Bft) 100,00 %
27.11.2022 19:00 7,7 C 7,2 C 3,9 C 86 % 1015,3 hPa 0,0 l/m 0 min 0 min 0 W/m 25,7 km/h (4 Bft) 100,00 %
27.11.2022 19:02 7,6 C 7,2 C 3,9 C 86 % 1015,3 hPa 0,0 l/m 0 min 0 min 0 W/m 25,7 km/h (4 Bft) 100,00 %
27.11.2022 19:04 7,6 C 6,7 C 3,3 C 86 % 1015,3 hPa 0,0 l/m 0 min 0 min 0 W/m 19,3 km/h (3 Bft) 98,18 %
27.11.2022 19:06 7,6 C 6,7 C 3,3 C 86 % 1015,2 hPa 0,0 l/m 0 min 0 min 0 W/m 19,3 km/h (3 Bft) 100,00 %
27.11.2022 19:08 7,6 C 6,7 C 3,3 C 86 % 1015,2 hPa 0,0 l/m 0 min 0 min 0 W/m 19,3 km/h (3 Bft) 100,00 %
27.11.2022 19:10 7,6 C 6,7 C 3,3 C 86 % 1015,2 hPa 0,0 l/m 0 min 0 min 0 W/m 16,1 km/h (3 Bft) 97,87 %
27.11.2022 19:12 7,6 C 6,7 C 3,3 C 86 % 1015,1 hPa 0,0 l/m 0 min 0 min 0 W/m 19,3 km/h (3 Bft) 100,00 %
27.11.2022 19:14 7,6 C 6,7 C 3,9 C 86 % 1015,1 hPa 0,0 l/m 0 min 0 min 0 W/m 19,3 km/h (3 Bft) 100,00 %
27.11.2022 19:16 7,6 C 6,7 C 3,9 C 86 % 1015,0 hPa 0,0 l/m 0 min 0 min 0 W/m 19,3 km/h (3 Bft) 97,22 %
27.11.2022 19:18 7,6 C 6,7 C 3,9 C 86 % 1015,1 hPa 0,0 l/m 0 min 0 min 0 W/m 16,1 km/h (3 Bft) 100,00 %
27.11.2022 19:20 7,6 C 6,7 C 3,9 C 86 % 1015,1 hPa 0,0 l/m 0 min 0 min 0 W/m 16,1 km/h (3 Bft) 97,87 %
27.11.2022 19:22 7,6 C 6,7 C 3,3 C 86 % 1015,2 hPa 0,0 l/m 0 min 0 min 0 W/m 12,9 km/h (3 Bft) 95,74 %
27.11.2022 19:24 7,6 C 6,7 C 3,3 C 86 % 1015,2 hPa 0,0 l/m 0 min 0 min 0 W/m 22,5 km/h (4 Bft) 100,00 %
27.11.2022 19:26 7,6 C 6,7 C 3,3 C 86 % 1015,3 hPa 0,0 l/m 0 min 0 min 0 W/m 6,4 km/h (2 Bft) 100,00 %
27.11.2022 19:28 7,6 C 6,7 C 3,3 C 86 % 1015,3 hPa 0,0 l/m 0 min 0 min 0 W/m 16,1 km/h (3 Bft) 91,84 %
27.11.2022 19:30 7,6 C 6,7 C 3,3 C 86 % 1015,2 hPa 0,0 l/m 0 min 0 min 0 W/m 22,5 km/h (4 Bft) 100,00 %
27.11.2022 19:32 7,5 C 6,7 C 3,3 C 86 % 1015,1 hPa 0,0 l/m 0 min 0 min 0 W/m 25,7 km/h (4 Bft) 95,74 %
27.11.2022 19:34 7,5 C 6,7 C 3,3 C 86 % 1015,1 hPa 0,0 l/m 0 min 0 min 0 W/m 25,7 km/h (4 Bft) 95,74 %
27.11.2022 19:36 7,5 C 6,7 C 3,3 C 86 % 1015,1 hPa 0,0 l/m 0 min 0 min 0 W/m 16,1 km/h (3 Bft) 92,73 %
27.11.2022 19:38 7,5 C 6,7 C 3,3 C 86 % 1015,2 hPa 0,0 l/m 0 min 0 min 0 W/m 25,7 km/h (4 Bft) 95,92 %
27.11.2022 19:40 7,5 C 6,7 C 3,3 C 86 % 1015,2 hPa 0,0 l/m 0 min 0 min 0 W/m 19,3 km/h (3 Bft) 91,49 %
27.11.2022 19:42 7,5 C 6,7 C 3,3 C 86 % 1015,2 hPa 0,0 l/m 0 min 0 min 0 W/m 25,7 km/h (4 Bft) 91,67 %
27.11.2022 19:44 7,5 C 6,7 C 3,3 C 86 % 1015,2 hPa 0,0 l/m 0 min 0 min 0 W/m 25,7 km/h (4 Bft) 93,62 %
27.11.2022 19:46 7,5 C 6,7 C 3,3 C 86 % 1015,1 hPa 0,0 l/m 0 min 0 min 0 W/m 16,1 km/h (3 Bft) 91,49 %
27.11.2022 19:48 7,5 C 6,7 C 3,3 C 86 % 1015,1 hPa 0,0 l/m 0 min 0 min 0 W/m 25,7 km/h (4 Bft) 90,91 %
27.11.2022 19:50 7,4 C 6,7 C 3,3 C 86 % 1015,0 hPa 0,0 l/m 0 min 2 min 0 W/m 16,1 km/h (3 Bft) 93,88 %
27.11.2022 19:52 7,4 C 6,7 C 2,8 C 87 % 1015,0 hPa 0,0 l/m 0 min 2 min 0 W/m 19,3 km/h (3 Bft) 94,44 %
27.11.2022 19:54 7,4 C 6,7 C 2,8 C 87 % 1014,9 hPa 0,0 l/m 0 min 0 min 0 W/m 16,1 km/h (3 Bft) 92,45 %
27.11.2022 19:56 7,4 C 6,7 C 2,8 C 87 % 1014,9 hPa 0,0 l/m 0 min 0 min 0 W/m 19,3 km/h (3 Bft) 94,00 %
27.11.2022 19:58 7,4 C 6,7 C 2,8 C 87 % 1014,9 hPa 0,0 l/m 0 min 0 min 0 W/m 25,7 km/h (4 Bft) 91,49 %
27.11.2022 20:00 7,3 C 6,7 C 2,8 C 87 % 1014,8 hPa 0,0 l/m 0 min 0 min 0 W/m 19,3 km/h (3 Bft) 93,62 %
27.11.2022 20:02 7,3 C 6,7 C 2,8 C 87 % 1014,8 hPa 0,0 l/m 0 min 2 min 0 W/m 19,3 km/h (3 Bft) 93,48 %
27.11.2022 20:04 7,3 C 6,7 C 2,8 C 88 % 1014,8 hPa 0,0 l/m 0 min 2 min 0 W/m 19,3 km/h (3 Bft) 90,00 %
27.11.2022 20:06 7,3 C 6,7 C 2,8 C 88 % 1014,7 hPa 0,0 l/m 0 min 0 min 0 W/m 35,4 km/h (5 Bft) 93,62 %
27.11.2022 20:08 7,3 C 6,7 C 2,8 C 88 % 1014,8 hPa 0,0 l/m 0 min 0 min 0 W/m 19,3 km/h (3 Bft) 85,71 %
27.11.2022 20:10 7,2 C 6,7 C 2,8 C 88 % 1014,7 hPa 0,0 l/m 0 min 0 min 0 W/m 16,1 km/h (3 Bft) 94,34 %
27.11.2022 20:12 7,2 C 6,7 C 2,8 C 88 % 1014,8 hPa 0,0 l/m 0 min 2 min 0 W/m 35,4 km/h (5 Bft) 93,62 %
27.11.2022 20:14 7,2 C 6,7 C 3,3 C 88 % 1014,7 hPa 0,0 l/m 0 min 2 min 0 W/m 16,1 km/h (3 Bft) 91,84 %
27.11.2022 20:16 7,2 C 6,7 C 3,3 C 88 % 1014,7 hPa 0,0 l/m 0 min 0 min 0 W/m 19,3 km/h (3 Bft) 96,00 %
27.11.2022 20:18 7,2 C 6,7 C 3,3 C 88 % 1014,8 hPa 0,0 l/m 0 min 0 min 0 W/m 16,1 km/h (3 Bft) 100,00 %
27.11.2022 20:20 7,2 C 6,7 C 3,3 C 88 % 1014,8 hPa 0,0 l/m 0 min 0 min 0 W/m 16,1 km/h (3 Bft) 100,00 %
27.11.2022 20:22 7,2 C 6,7 C 3,3 C 88 % 1014,8 hPa 0,0 l/m 0 min 0 min 0 W/m 22,5 km/h (4 Bft) 96,00 %
27.11.2022 20:24 7,1 C 6,7 C 3,3 C 88 % 1014,8 hPa 0,0 l/m 0 min 0 min 0 W/m 12,9 km/h (3 Bft) 100,00 %
27.11.2022 20:26 7,1 C 6,7 C 3,3 C 88 % 1014,8 hPa 0,0 l/m 0 min 0 min 0 W/m 22,5 km/h (4 Bft) 100,00 %
27.11.2022 20:28 7,1 C 6,7 C 3,3 C 88 % 1014,8 hPa 0,0 l/m 0 min 0 min 0 W/m 16,1 km/h (3 Bft) 100,00 %
27.11.2022 20:30 7,1 C 6,7 C 3,3 C 88 % 1014,9 hPa 0,0 l/m 0 min 0 min 0 W/m 16,1 km/h (3 Bft) 98,11 %
27.11.2022 20:32 7,1 C 6,7 C 3,3 C 88 % 1014,8 hPa 0,0 l/m 0 min 0 min 0 W/m 25,7 km/h (4 Bft) 100,00 %
27.11.2022 20:34 7,1 C 6,7 C 3,3 C 88 % 1014,7 hPa 0,0 l/m 0 min 0 min 0 W/m 16,1 km/h (3 Bft) 98,00 %
27.11.2022 20:36 7,1 C 6,1 C 3,3 C 88 % 1014,7 hPa 0,0 l/m 0 min 0 min 0 W/m 25,7 km/h (4 Bft) 97,83 %
27.11.2022 20:38 7,1 C 6,7 C 3,3 C 88 % 1014,7 hPa 0,0 l/m 0 min 0 min 0 W/m 19,3 km/h (3 Bft) 100,00 %
27.11.2022 20:40 7,1 C 6,1 C 3,3 C 88 % 1014,6 hPa 0,0 l/m 0 min 0 min 0 W/m 25,7 km/h (4 Bft) 100,00 %
27.11.2022 20:42 7,1 C 6,1 C 3,3 C 88 % 1014,6 hPa 0,0 l/m 0 min 0 min 0 W/m 19,3 km/h (3 Bft) 97,96 %
27.11.2022 20:44 7,1 C 6,1 C 3,3 C 88 % 1014,6 hPa 0,0 l/m 0 min 0 min 0 W/m 16,1 km/h (3 Bft) 100,00 %
27.11.2022 20:46 7,0 C 6,1 C 3,3 C 88 % 1014,5 hPa 0,0 l/m 0 min 0 min 0 W/m 16,1 km/h (3 Bft) 100,00 %
27.11.2022 20:48 7,0 C 6,1 C 3,3 C 88 % 1014,5 hPa 0,0 l/m 0 min 0 min 0 W/m 16,1 km/h (3 Bft) 100,00 %
27.11.2022 20:50 7,1 C 6,1 C 3,3 C 88 % 1014,4 hPa 0,0 l/m 0 min 0 min 0 W/m 16,1 km/h (3 Bft) 100,00 %
27.11.2022 20:52 7,0 C 6,1 C 3,3 C 88 % 1014,3 hPa 0,0 l/m 0 min 0 min 0 W/m 16,1 km/h (3 Bft) 100,00 %
27.11.2022 20:54 7,0 C 6,1 C 3,3 C 88 % 1014,2 hPa 0,0 l/m 0 min 0 min 0 W/m 16,1 km/h (3 Bft) 98,00 %
27.11.2022 20:59 7,0 C 6,1 C 3,3 C 88 % 1014,1 hPa 0,0 l/m 0 min 0 min 0 W/m 25,7 km/h (4 Bft) 100,00 %
27.11.2022 21:00 7,0 C 6,1 C 3,3 C 88 % 1014,1 hPa 0,0 l/m 0 min 0 min 0 W/m 19,3 km/h (3 Bft) 95,83 %
27.11.2022 21:02 7,0 C 6,1 C 3,3 C 88 % 1014,1 hPa 0,0 l/m 0 min 2 min 0 W/m 29,0 km/h (5 Bft) 100,00 %
27.11.2022 21:04 7,0 C 6,1 C 3,3 C 88 % 1014,1 hPa 0,0 l/m 0 min 0 min 0 W/m 16,1 km/h (3 Bft) 100,00 %
27.11.2022 21:06 7,0 C 6,1 C 3,3 C 88 % 1014,1 hPa 0,0 l/m 0 min 0 min 0 W/m 25,7 km/h (4 Bft) 100,00 %
27.11.2022 21:08 7,0 C 6,1 C 3,3 C 88 % 1014,2 hPa 0,0 l/m 0 min 0 min 0 W/m 16,1 km/h (3 Bft) 100,00 %
27.11.2022 21:10 7,0 C 6,7 C 3,3 C 88 % 1014,1 hPa 0,0 l/m 0 min 0 min 0 W/m 19,3 km/h (3 Bft) 100,00 %
27.11.2022 21:12 7,0 C 6,7 C 3,3 C 88 % 1014,2 hPa 0,0 l/m 0 min 0 min 0 W/m 25,7 km/h (4 Bft) 100,00 %
27.11.2022 21:14 7,0 C 6,7 C 3,3 C 88 % 1014,2 hPa 0,0 l/m 0 min 0 min 0 W/m 16,1 km/h (3 Bft) 100,00 %
27.11.2022 21:16 7,0 C 6,1 C 3,3 C 88 % 1014,3 hPa 0,0 l/m 0 min 0 min 0 W/m 25,7 km/h (4 Bft) 100,00 %
27.11.2022 21:18 7,0 C 6,1 C 3,3 C 88 % 1014,3 hPa 0,0 l/m 0 min 0 min 0 W/m 19,3 km/h (3 Bft) 100,00 %
27.11.2022 21:20 7,0 C 6,1 C 3,3 C 88 % 1014,2 hPa 0,0 l/m 0 min 0 min 0 W/m 12,9 km/h (3 Bft) 100,00 %
27.11.2022 21:22 7,0 C 6,1 C 3,3 C 88 % 1014,2 hPa 0,0 l/m 0 min 0 min 0 W/m 19,3 km/h (3 Bft) 97,87 %
27.11.2022 21:24 7,0 C 6,1 C 3,3 C 88 % 1014,2 hPa 0,0 l/m 0 min 0 min 0 W/m 19,3 km/h (3 Bft) 100,00 %
27.11.2022 21:26 7,0 C 6,1 C 3,3 C 88 % 1014,1 hPa 0,0 l/m 0 min 0 min 0 W/m 19,3 km/h (3 Bft) 100,00 %
27.11.2022 21:28 7,0 C 6,1 C 3,3 C 88 % 1014,0 hPa 0,0 l/m 0 min 0 min 0 W/m 19,3 km/h (3 Bft) 100,00 %
27.11.2022 21:30 6,9 C 6,1 C 3,3 C 88 % 1013,8 hPa 0,0 l/m 0 min 0 min 0 W/m 19,3 km/h (3 Bft) 100,00 %
27.11.2022 21:32 6,9 C 6,1 C 3,3 C 88 % 1013,8 hPa 0,0 l/m 0 min 0 min 0 W/m 22,5 km/h (4 Bft) 97,83 %
27.11.2022 21:34 6,9 C 6,1 C 3,3 C 88 % 1013,6 hPa 0,0 l/m 0 min 0 min 0 W/m 19,3 km/h (3 Bft) 100,00 %
27.11.2022 21:36 6,9 C 6,1 C 3,3 C 87 % 1013,6 hPa 0,0 l/m 0 min 0 min 0 W/m 19,3 km/h (3 Bft) 95,74 %
27.11.2022 21:38 6,9 C 6,1 C 3,3 C 87 % 1013,4 hPa 0,0 l/m 0 min 0 min 0 W/m 22,5 km/h (4 Bft) 97,87 %
27.11.2022 21:40 6,9 C 6,1 C 3,3 C 87 % 1013,3 hPa 0,0 l/m 0 min 0 min 0 W/m 22,5 km/h (4 Bft) 97,87 %
27.11.2022 21:42 6,9 C 6,1 C 3,3 C 87 % 1013,3 hPa 0,0 l/m 0 min 0 min 0 W/m 22,5 km/h (4 Bft) 97,87 %
27.11.2022 21:44 6,9 C 6,1 C 3,3 C 87 % 1013,4 hPa 0,0 l/m 0 min 0 min 0 W/m 16,1 km/h (3 Bft) 97,83 %
27.11.2022 21:46 6,9 C 6,1 C 3,3 C 87 % 1013,4 hPa 0,0 l/m 0 min 0 min 0 W/m 22,5 km/h (4 Bft) 95,74 %
27.11.2022 21:48 7,0 C 6,1 C 3,3 C 87 % 1013,4 hPa 0,0 l/m 0 min 0 min 0 W/m 16,1 km/h (3 Bft) 93,62 %
27.11.2022 21:50 7,0 C 6,1 C 3,3 C 87 % 1013,4 hPa 0,0 l/m 0 min 0 min 0 W/m 25,7 km/h (4 Bft) 97,87 %
27.11.2022 21:52 7,0 C 6,7 C 3,3 C 87 % 1013,4 hPa 0,0 l/m 0 min 0 min 0 W/m 19,3 km/h (3 Bft) 97,87 %
27.11.2022 21:54 7,0 C 6,7 C 3,3 C 87 % 1013,4 hPa 0,0 l/m 0 min 0 min 0 W/m 16,1 km/h (3 Bft) 97,87 %
27.11.2022 21:56 7,0 C 6,1 C 3,3 C 87 % 1013,3 hPa 0,0 l/m 0 min 0 min 0 W/m 19,3 km/h (3 Bft) 93,48 %
27.11.2022 21:58 7,0 C 6,1 C 3,3 C 87 % 1013,3 hPa 0,0 l/m 0 min 0 min 0 W/m 29,0 km/h (5 Bft) 97,87 %
27.11.2022 22:00 7,0 C 6,7 C 3,3 C 87 % 1013,3 hPa 0,0 l/m 0 min 0 min 0 W/m 25,7 km/h (4 Bft) 97,87 %
27.11.2022 22:02 7,0 C 6,7 C 3,3 C 87 % 1013,3 hPa 0,0 l/m 0 min 0 min 0 W/m 16,1 km/h (3 Bft) 95,74 %
27.11.2022 22:04 7,0 C 6,7 C 3,3 C 87 % 1013,3 hPa 0,0 l/m 0 min 0 min 0 W/m 16,1 km/h (3 Bft) 95,74 %
27.11.2022 22:06 7,1 C 6,7 C 3,3 C 87 % 1013,2 hPa 0,0 l/m 0 min 0 min 0 W/m 19,3 km/h (3 Bft) 94,83 %
27.11.2022 22:08 7,1 C 6,7 C 3,3 C 87 % 1013,2 hPa 0,0 l/m 0 min 0 min 0 W/m 19,3 km/h (3 Bft) 94,29 %
27.11.2022 22:10 7,1 C 6,7 C 3,3 C 87 % 1013,2 hPa 0,0 l/m 0 min 0 min 0 W/m 16,1 km/h (3 Bft) 97,87 %
27.11.2022 22:12 7,1 C 6,7 C 3,3 C 87 % 1013,1 hPa 0,0 l/m 0 min 0 min 0 W/m 19,3 km/h (3 Bft) 97,87 %
27.11.2022 22:14 7,1 C 6,7 C 3,3 C 87 % 1013,1 hPa 0,0 l/m 0 min 0 min 0 W/m 25,7 km/h (4 Bft) 97,87 %
27.11.2022 22:16 7,1 C 6,7 C 3,3 C 87 % 1013,1 hPa 0,0 l/m 0 min 0 min 0 W/m 19,3 km/h (3 Bft) 97,87 %
27.11.2022 22:18 7,1 C 6,7 C 3,3 C 87 % 1013,1 hPa 0,0 l/m 0 min 0 min 0 W/m 22,5 km/h (4 Bft) 97,83 %
27.11.2022 22:20 7,1 C 6,7 C 3,3 C 87 % 1013,2 hPa 0,0 l/m 0 min 0 min 0 W/m 16,1 km/h (3 Bft) 97,87 %
27.11.2022 22:22 7,2 C 6,7 C 3,3 C 87 % 1013,1 hPa 0,0 l/m 0 min 0 min 0 W/m 12,9 km/h (3 Bft) 97,87 %
27.11.2022 22:24 7,2 C 6,7 C 3,3 C 87 % 1013,2 hPa 0,0 l/m 0 min 0 min 0 W/m 9,7 km/h (2 Bft) 95,74 %
27.11.2022 22:26 7,2 C 6,7 C 3,3 C 87 % 1013,1 hPa 0,0 l/m 0 min 0 min 0 W/m 19,3 km/h (3 Bft) 95,74 %
27.11.2022 22:28 7,2 C 6,7 C 3,3 C 87 % 1013,2 hPa 0,0 l/m 0 min 0 min 0 W/m 6,4 km/h (2 Bft) 95,74 %
27.11.2022 22:30 7,2 C 6,7 C 3,3 C 88 % 1013,1 hPa 0,0 l/m 0 min 0 min 0 W/m 22,5 km/h (4 Bft) 95,65 %
27.11.2022 22:32 7,2 C 6,7 C 3,3 C 88 % 1013,1 hPa 0,0 l/m 0 min 0 min 0 W/m 19,3 km/h (3 Bft) 95,74 %
27.11.2022 22:34 7,2 C 6,1 C 3,3 C 88 % 1013,1 hPa 0,0 l/m 0 min 0 min 0 W/m 19,3 km/h (3 Bft) 95,74 %
27.11.2022 22:36 7,1 C 6,1 C 3,3 C 88 % 1013,1 hPa 0,0 l/m 0 min 0 min 0 W/m 16,1 km/h (3 Bft) 95,74 %
27.11.2022 22:38 7,1 C 6,1 C 3,3 C 88 % 1013,1 hPa 0,0 l/m 0 min 0 min 0 W/m 19,3 km/h (3 Bft) 91,49 %
27.11.2022 22:40 7,1 C 6,1 C 3,3 C 88 % 1013,1 hPa 0,0 l/m 0 min 0 min 0 W/m 19,3 km/h (3 Bft) 95,74 %
27.11.2022 22:42 7,1 C 6,1 C 2,8 C 89 % 1013,1 hPa 0,0 l/m 0 min 0 min 0 W/m 16,1 km/h (3 Bft) 93,48 %
27.11.2022 22:44 7,1 C 6,1 C 2,8 C 89 % 1013,1 hPa 0,0 l/m 0 min 0 min 0 W/m 16,1 km/h (3 Bft) 97,87 %
27.11.2022 22:46 7,1 C 6,1 C 3,3 C 89 % 1013,0 hPa 0,0 l/m 0 min 0 min 0 W/m 19,3 km/h (3 Bft) 97,87 %
27.11.2022 22:48 7,0 C 6,1 C 3,3 C 89 % 1013,1 hPa 0,0 l/m 0 min 0 min 0 W/m 19,3 km/h (3 Bft) 97,87 %
27.11.2022 22:50 7,0 C 6,1 C 3,3 C 89 % 1013,1 hPa 0,0 l/m 0 min 0 min 0 W/m 12,9 km/h (3 Bft) 93,62 %
27.11.2022 22:52 7,0 C 6,1 C 3,3 C 89 % 1013,1 hPa 0,0 l/m 0 min 0 min 0 W/m 16,1 km/h (3 Bft) 97,87 %
27.11.2022 22:54 6,9 C 6,1 C 3,3 C 89 % 1013,0 hPa 0,0 l/m 0 min 0 min 0 W/m 29,0 km/h (5 Bft) 97,83 %
27.11.2022 22:56 6,9 C 6,1 C 3,3 C 90 % 1013,0 hPa 0,0 l/m 0 min 0 min 0 W/m 25,7 km/h (4 Bft) 97,87 %
27.11.2022 22:58 6,9 C 6,1 C 2,8 C 90 % 1013,0 hPa 0,0 l/m 0 min 0 min 0 W/m 22,5 km/h (4 Bft) 97,87 %
27.11.2022 23:00 6,9 C 6,1 C 2,8 C 90 % 1012,9 hPa 0,0 l/m 0 min 0 min 0 W/m 22,5 km/h (4 Bft) 95,74 %
27.11.2022 23:02 6,9 C 6,1 C 2,8 C 90 % 1012,9 hPa 0,0 l/m 0 min 0 min 0 W/m 16,1 km/h (3 Bft) 97,87 %
27.11.2022 23:04 6,9 C 6,1 C 2,8 C 90 % 1012,9 hPa 0,0 l/m 0 min 0 min 0 W/m 19,3 km/h (3 Bft) 97,87 %
27.11.2022 23:06 6,9 C 6,1 C 2,8 C 90 % 1012,9 hPa 0,0 l/m 0 min 2 min 0 W/m 16,1 km/h (3 Bft) 98,28 %
27.11.2022 23:08 6,9 C 6,1 C 2,8 C 90 % 1012,9 hPa 0,0 l/m 0 min 2 min 0 W/m 16,1 km/h (3 Bft) 97,14 %
27.11.2022 23:10 6,9 C 6,1 C 2,8 C 90 % 1012,9 hPa 0,0 l/m 0 min 0 min 0 W/m 12,9 km/h (3 Bft) 97,87 %
27.11.2022 23:12 6,9 C 6,1 C 2,8 C 90 % 1012,9 hPa 0,0 l/m 0 min 0 min 0 W/m 12,9 km/h (3 Bft) 93,62 %
27.11.2022 23:14 6,9 C 6,1 C 2,8 C 90 % 1012,8 hPa 0,0 l/m 0 min 2 min 0 W/m 19,3 km/h (3 Bft) 97,87 %
27.11.2022 23:16 6,9 C 6,1 C 2,8 C 90 % 1012,9 hPa 0,0 l/m 0 min 2 min 0 W/m 19,3 km/h (3 Bft) 95,74 %
27.11.2022 23:18 6,9 C 6,1 C 2,8 C 91 % 1012,8 hPa 0,0 l/m 0 min 0 min 0 W/m 22,5 km/h (4 Bft) 95,65 %
27.11.2022 23:20 6,9 C 6,1 C 2,8 C 91 % 1012,9 hPa 0,0 l/m 0 min 0 min 0 W/m 16,1 km/h (3 Bft) 97,87 %
27.11.2022 23:22 6,9 C 6,1 C 2,8 C 91 % 1012,9 hPa 0,0 l/m 0 min 0 min 0 W/m 25,7 km/h (4 Bft) 100,00 %
27.11.2022 23:24 6,8 C 6,1 C 2,8 C 91 % 1012,9 hPa 0,0 l/m 0 min 2 min 0 W/m 16,1 km/h (3 Bft) 97,87 %
27.11.2022 23:26 6,9 C 6,1 C 2,8 C 91 % 1012,9 hPa 0,0 l/m 0 min 2 min 0 W/m 19,3 km/h (3 Bft) 100,00 %
27.11.2022 23:28 6,9 C 6,1 C 2,8 C 91 % 1012,8 hPa 0,2 l/m 0 min 2 min 0 W/m 19,3 km/h (3 Bft) 100,00 %
27.11.2022 23:30 6,9 C 6,1 C 2,8 C 91 % 1012,9 hPa 0,0 l/m 0 min 2 min 0 W/m 16,1 km/h (3 Bft) 97,87 %
27.11.2022 23:32 6,9 C 6,1 C 2,2 C 91 % 1012,8 hPa 0,0 l/m 0 min 2 min 0 W/m 16,1 km/h (3 Bft) 95,74 %
27.11.2022 23:34 6,9 C 6,1 C 2,2 C 91 % 1012,9 hPa 0,0 l/m 0 min 2 min 0 W/m 16,1 km/h (3 Bft) 97,87 %
27.11.2022 23:36 6,9 C 6,1 C 2,2 C 92 % 1012,8 hPa 0,2 l/m 0 min 2 min 0 W/m 12,9 km/h (3 Bft) 97,87 %
27.11.2022 23:38 6,8 C 6,1 C 2,2 C 92 % 1012,8 hPa 0,0 l/m 0 min 2 min 0 W/m 29,0 km/h (5 Bft) 97,87 %
27.11.2022 23:40 6,9 C 6,1 C 2,2 C 92 % 1012,7 hPa 0,0 l/m 0 min 2 min 0 W/m 25,7 km/h (4 Bft) 97,83 %
27.11.2022 23:42 6,8 C 6,1 C 2,2 C 92 % 1012,7 hPa 0,0 l/m 0 min 2 min 0 W/m 19,3 km/h (3 Bft) 97,87 %
27.11.2022 23:44 6,8 C 6,1 C 2,2 C 92 % 1012,6 hPa 0,0 l/m 0 min 2 min 0 W/m 16,1 km/h (3 Bft) 97,87 %
27.11.2022 23:46 6,8 C 5,6 C 2,2 C 92 % 1012,6 hPa 0,0 l/m 0 min 2 min 0 W/m 19,3 km/h (3 Bft) 97,87 %
27.11.2022 23:48 6,8 C 5,6 C 2,2 C 92 % 1012,6 hPa 0,0 l/m 0 min 2 min 0 W/m 19,3 km/h (3 Bft) 97,87 %
27.11.2022 23:50 6,8 C 5,6 C 2,2 C 92 % 1012,5 hPa 0,0 l/m 0 min 0 min 0 W/m 19,3 km/h (3 Bft) 97,87 %
27.11.2022 23:52 6,8 C 5,6 C 2,2 C 93 % 1012,4 hPa 0,0 l/m 0 min 0 min 0 W/m 12,9 km/h (3 Bft) 95,65 %
27.11.2022 23:54 6,8 C 5,6 C 2,2 C 93 % 1012,4 hPa 0,0 l/m 0 min 0 min 0 W/m 22,5 km/h (4 Bft) 97,87 %
27.11.2022 23:56 6,8 C 5,6 C 2,2 C 93 % 1012,4 hPa 0,0 l/m 0 min 0 min 0 W/m 12,9 km/h (3 Bft) 97,87 %
27.11.2022 23:58 6,8 C 5,6 C 2,2 C 93 % 1012,4 hPa 0,0 l/m 0 min 0 min 0 W/m 22,5 km/h (4 Bft) 97,87 %
_ Min-Zeit 01:42 00:14 01:42 13:54 23:52 - - - - 01:32 06:28
Minimum _ 4,7 C 3,9 C 1,7 C 81 % 1012,4 hPa - - - - 3,2 km/h (1 Bft) 46,15 %
_ Max-Zeit 14:06 13:52 13:06 00:00 00:00 14:32 09:04 11:48 13:52 05:02 00:16
Maximum _ 8,9 C 8,9 C 5,0 C 95 % 1027,6 hPa 0,2 l/m 2 min 2 min 128 W/m 35,4 km/h
O-SO (5 Bft)
100,00 %
Durchschnitt _ 6,5 C 5,9 C 3,0 C 89 % 1020,3 hPa #0,6 l/m #14 min. #1:36 h 57 W/m 17,0 km/h (3 Bft) 96,97 %
© 2022 W. Hausmann